DLH14PJ EDDF-KAUS

Flight info

Callsign DLH14PJ
Flight time 10h 32m
Altitude 32000
Route OBOKA3D/07C OBOKA Z29 TORNU DCT VICOT DCT GALSO Q63 ICTAM T421 DIDZA DCT CESQA DCT BIBPE DCT OKTAD DCT AZCAL DCT MEDOG DCT LANON DCT LIPGO DCT ENULA/N0477F340 DCT PIKIL/M083F340 NATD JANJO/N0486F360 DCT SPOTE DCT ULDON DCT YVO DCT ALMOP DCT ODAXY DCT OBK/N0468F380 DCT KG66K DCT KK54I DCT FSM DCT WINDU SEWZY6
Aircraft A346/H-SDE2E3FGHIJ3J4J5M1RWXY/LB1D1

Departure

Time 2026-04-07 10:03
Airport Frankfurt Main Airport (EDDF)

Arrival

Time 2026-04-07 20:36
Airport Austin Bergstrom International Airport (KAUS)
Time Latitude Longitude Altitude Speed Heading
2026-04-07 09:24 50.04593 8.57048 366 ft 0 kts 59°
2026-04-07 09:46 50.04588 8.57034 369 ft 4 kts 59°
2026-04-07 09:47 50.04574 8.56999 368 ft 4 kts 62°
2026-04-07 09:47 50.04567 8.56967 369 ft 4 kts 91°
2026-04-07 09:47 50.04571 8.56938 369 ft 4 kts 113°
2026-04-07 09:47 50.04582 8.56914 372 ft 4 kts 149°
2026-04-07 09:48 50.04598 8.56908 369 ft 4 kts 188°
2026-04-07 09:48 50.04597 8.56907 369 ft 4 kts 193°
2026-04-07 09:48 50.04570 8.56898 372 ft 4 kts 194°
2026-04-07 09:48 50.04561 8.56894 369 ft 0 kts 194°
2026-04-07 09:52 50.04555 8.56892 370 ft 2 kts 194°
2026-04-07 09:52 50.04512 8.56875 368 ft 14 kts 193°
2026-04-07 09:52 50.04414 8.56845 369 ft 14 kts 188°
2026-04-07 09:52 50.04324 8.56822 369 ft 8 kts 191°
2026-04-07 09:53 50.04264 8.56794 372 ft 10 kts 211°
2026-04-07 09:53 50.04222 8.56689 370 ft 13 kts 251°
2026-04-07 09:53 50.04190 8.56544 367 ft 15 kts 251°
2026-04-07 09:53 50.04153 8.56384 369 ft 16 kts 249°
2026-04-07 09:54 50.04112 8.56215 365 ft 17 kts 249°
2026-04-07 09:54 50.04069 8.56036 364 ft 18 kts 250°
2026-04-07 09:54 50.04026 8.55852 362 ft 18 kts 250°
2026-04-07 09:54 50.03980 8.55663 362 ft 19 kts 250°
2026-04-07 09:55 50.03935 8.55473 364 ft 19 kts 249°
2026-04-07 09:55 50.03889 8.55283 362 ft 19 kts 250°
2026-04-07 09:55 50.03844 8.55092 358 ft 19 kts 250°
2026-04-07 09:55 50.03798 8.54899 364 ft 19 kts 250°
2026-04-07 09:56 50.03751 8.54705 361 ft 20 kts 249°
2026-04-07 09:56 50.03702 8.54497 357 ft 21 kts 250°
2026-04-07 09:56 50.03648 8.54270 359 ft 23 kts 249°
2026-04-07 09:56 50.03594 8.54049 354 ft 14 kts 249°
2026-04-07 09:57 50.03570 8.53945 356 ft 11 kts 250°
2026-04-07 09:57 50.03542 8.53828 355 ft 12 kts 250°
2026-04-07 09:57 50.03510 8.53696 356 ft 14 kts 250°
2026-04-07 09:57 50.03476 8.53552 353 ft 15 kts 249°
2026-04-07 09:58 50.03439 8.53400 352 ft 15 kts 249°
2026-04-07 09:58 50.03400 8.53236 354 ft 17 kts 249°
2026-04-07 09:58 50.03359 8.53064 353 ft 17 kts 249°
2026-04-07 09:58 50.03321 8.52906 349 ft 11 kts 249°
2026-04-07 09:59 50.03271 8.52822 353 ft 12 kts 194°
2026-04-07 09:59 50.03184 8.52819 343 ft 13 kts 180°
2026-04-07 09:59 50.03093 8.52821 344 ft 13 kts 176°
2026-04-07 09:59 50.03021 8.52905 349 ft 14 kts 125°
2026-04-07 10:00 50.02964 8.53029 352 ft 14 kts 126°
2026-04-07 10:00 50.02944 8.53176 349 ft 14 kts 77°
2026-04-07 10:00 50.02978 8.53325 353 ft 15 kts 70°
2026-04-07 10:00 50.03014 8.53477 350 ft 15 kts 70°
2026-04-07 10:01 50.03068 8.53600 349 ft 14 kts 11°
2026-04-07 10:01 50.03164 8.53560 349 ft 14 kts 340°
2026-04-07 10:01 50.03242 8.53515 351 ft 9 kts 340°
2026-04-07 10:01 50.03278 8.53540 357 ft 6 kts 61°
2026-04-07 10:02 50.03291 8.53586 356 ft 5 kts 67°
2026-04-07 10:02 50.03334 8.53762 352 ft 41 kts 69°
2026-04-07 10:02 50.03495 8.54442 359 ft 91 kts 70°
2026-04-07 10:02 50.03774 8.55603 360 ft 135 kts 70°
2026-04-07 10:03 50.04146 8.57165 377 ft 171 kts 70°
2026-04-07 10:03 50.04584 8.59045 517 ft 189 kts 69°
2026-04-07 10:03 50.05025 8.60935 1057 ft 182 kts 69°
2026-04-07 10:03 50.05461 8.62795 1540 ft 183 kts 69°
2026-04-07 10:04 50.05868 8.64652 2046 ft 183 kts 71°
2026-04-07 10:04 50.06253 8.66533 2484 ft 181 kts 72°
2026-04-07 10:04 50.06634 8.68439 2797 ft 188 kts 71°
2026-04-07 10:04 50.07226 8.70307 3062 ft 196 kts 54°
2026-04-07 10:05 50.08228 8.71793 3392 ft 204 kts 30°
2026-04-07 10:05 50.09552 8.72659 3787 ft 208 kts 23°
2026-04-07 10:05 50.10893 8.73509 4125 ft 216 kts 24°
2026-04-07 10:05 50.12322 8.74461 4305 ft 229 kts 24°
2026-04-07 10:06 50.13831 8.75483 4528 ft 242 kts 24°
2026-04-07 10:06 50.15415 8.76557 4784 ft 254 kts 23°
2026-04-07 10:06 50.17094 8.77567 5137 ft 263 kts
2026-04-07 10:06 50.18897 8.77286 5546 ft 265 kts 333°
2026-04-07 10:07 50.20298 8.75450 6183 ft 265 kts 304°
2026-04-07 10:07 50.21218 8.72994 6815 ft 266 kts 301°
2026-04-07 10:07 50.22139 8.70450 7306 ft 269 kts 301°
2026-04-07 10:07 50.23091 8.67907 7840 ft 271 kts 302°
2026-04-07 10:08 50.24059 8.65364 8373 ft 273 kts 303°
2026-04-07 10:08 50.25042 8.62815 8900 ft 274 kts 303°
2026-04-07 10:08 50.26039 8.60247 9443 ft 276 kts 303°
2026-04-07 10:08 50.27041 8.57670 10017 ft 278 kts 303°
2026-04-07 10:09 50.28054 8.55075 10525 ft 280 kts 303°
2026-04-07 10:09 50.29080 8.52454 10794 ft 291 kts 303°
2026-04-07 10:09 50.30159 8.49700 11024 ft 303 kts 303°
2026-04-07 10:09 50.31287 8.46813 11272 ft 316 kts 303°
2026-04-07 10:10 50.32455 8.43823 11492 ft 328 kts 303°
2026-04-07 10:10 50.33674 8.40699 11715 ft 340 kts 303°
2026-04-07 10:10 50.34917 8.37507 11950 ft 353 kts 303°
2026-04-07 10:10 50.36220 8.34159 12186 ft 366 kts 303°
2026-04-07 10:11 50.37562 8.30701 12550 ft 374 kts 303°
2026-04-07 10:11 50.38919 8.27200 13116 ft 376 kts 303°
2026-04-07 10:11 50.40280 8.23682 13704 ft 378 kts 303°
2026-04-07 10:11 50.41651 8.20134 14229 ft 380 kts 302°
2026-04-07 10:12 50.43027 8.16572 14693 ft 383 kts 303°
2026-04-07 10:12 50.44401 8.13011 15189 ft 386 kts 303°
2026-04-07 10:12 50.45798 8.09385 15671 ft 388 kts 303°
2026-04-07 10:12 50.47203 8.05734 16151 ft 391 kts 303°
2026-04-07 10:13 50.48612 8.02068 16628 ft 393 kts 303°
2026-04-07 10:13 50.50011 7.98423 17100 ft 395 kts 303°
2026-04-07 10:13 50.51436 7.94702 17565 ft 398 kts 303°
2026-04-07 10:13 50.52870 7.90953 18026 ft 400 kts 302°
2026-04-07 10:14 50.54313 7.87172 18487 ft 403 kts 303°
2026-04-07 10:14 50.55768 7.83356 18911 ft 405 kts 303°
2026-04-07 10:14 50.57224 7.79532 19317 ft 407 kts 302°
2026-04-07 10:14 50.58664 7.75746 19721 ft 409 kts 302°
2026-04-07 10:15 50.60129 7.71890 20133 ft 411 kts 302°
2026-04-07 10:15 50.61604 7.68001 20512 ft 413 kts 302°
2026-04-07 10:15 50.63086 7.64086 20908 ft 415 kts 302°
2026-04-07 10:15 50.64565 7.60177 21300 ft 418 kts 302°
2026-04-07 10:16 50.65870 7.56718 21639 ft 419 kts 302°
2026-04-07 10:16 50.67369 7.52742 22034 ft 421 kts 302°
2026-04-07 10:16 50.68870 7.48755 22427 ft 423 kts 302°
2026-04-07 10:16 50.70359 7.44793 22820 ft 425 kts 302°
2026-04-07 10:17 50.71872 7.40757 23202 ft 427 kts 301°
2026-04-07 10:17 50.73392 7.36696 23567 ft 430 kts 301°
2026-04-07 10:17 50.74875 7.32562 23943 ft 432 kts 299°
2026-04-07 10:17 50.76272 7.28346 24244 ft 434 kts 298°
2026-04-07 10:18 50.77659 7.24091 24551 ft 436 kts 298°
2026-04-07 10:18 50.79035 7.19855 24846 ft 438 kts 298°
2026-04-07 10:18 50.80432 7.15548 25138 ft 440 kts 298°
2026-04-07 10:18 50.81833 7.11225 25448 ft 441 kts 298°
2026-04-07 10:19 50.83241 7.06877 25736 ft 443 kts 298°
2026-04-07 10:19 50.86064 6.98138 26322 ft 447 kts 297°
2026-04-07 10:19 50.87466 6.93788 26597 ft 449 kts 297°
2026-04-07 10:20 50.88894 6.89352 26883 ft 451 kts 297°
2026-04-07 10:20 50.90324 6.84901 27159 ft 453 kts 297°
2026-04-07 10:20 50.91759 6.80426 27429 ft 455 kts 297°
2026-04-07 10:20 50.93197 6.75936 27700 ft 457 kts 297°
2026-04-07 10:21 50.94626 6.71465 27959 ft 459 kts 297°
2026-04-07 10:21 50.96070 6.66938 28209 ft 461 kts 297°
2026-04-07 10:21 50.97525 6.62367 28496 ft 462 kts 297°
2026-04-07 10:21 50.98974 6.57808 28871 ft 461 kts 297°
2026-04-07 10:22 51.00422 6.53243 29286 ft 459 kts 297°
2026-04-07 10:22 51.01839 6.48767 29648 ft 458 kts 297°
2026-04-07 10:22 51.03276 6.44224 29994 ft 458 kts 297°
2026-04-07 10:22 51.04710 6.39676 30317 ft 458 kts 297°
2026-04-07 10:23 51.06122 6.35140 30350 ft 458 kts 294°
2026-04-07 10:23 51.08368 6.25676 30410 ft 462 kts 289°
2026-04-07 10:23 51.09418 6.20852 30730 ft 460 kts 289°
2026-04-07 10:24 51.10119 6.17643 30991 ft 458 kts 289°
2026-04-07 10:24 51.11173 6.12856 31355 ft 455 kts 289°
2026-04-07 10:24 51.12234 6.08073 31642 ft 455 kts 289°
2026-04-07 10:24 51.13284 6.03357 31857 ft 456 kts 289°
2026-04-07 10:25 51.14348 5.98589 32048 ft 457 kts 289°
2026-04-07 10:25 51.15418 5.93799 32238 ft 458 kts 289°
2026-04-07 10:25 51.16491 5.88987 32357 ft 459 kts 289°
2026-04-07 10:26 51.18620 5.79420 32343 ft 459 kts 289°
2026-04-07 10:26 51.20779 5.69675 32351 ft 470 kts 289°
2026-04-07 10:27 51.22956 5.59809 32362 ft 474 kts 289°
2026-04-07 10:27 51.25141 5.49862 32362 ft 474 kts 289°
2026-04-07 10:28 51.27322 5.39884 32366 ft 474 kts 289°
2026-04-07 10:28 51.29478 5.29975 32366 ft 474 kts 289°
2026-04-07 10:29 51.31637 5.20001 32370 ft 474 kts 288°
2026-04-07 10:29 51.33779 5.10059 32365 ft 474 kts 288°
2026-04-07 10:30 51.35927 5.00039 32366 ft 474 kts 288°
2026-04-07 10:30 51.38051 4.90080 32367 ft 474 kts 288°
2026-04-07 10:31 51.40182 4.80042 32364 ft 474 kts 288°
2026-04-07 10:31 51.42305 4.69987 32365 ft 474 kts 288°
2026-04-07 10:32 51.44408 4.59983 32345 ft 475 kts 288°
2026-04-07 10:32 51.46513 4.49915 32347 ft 475 kts 288°
2026-04-07 10:33 51.48611 4.39833 32346 ft 475 kts 287°
2026-04-07 10:33 51.50687 4.29805 32347 ft 475 kts 287°
2026-04-07 10:34 51.52769 4.19697 32344 ft 475 kts 287°
2026-04-07 10:34 51.54828 4.09650 32341 ft 475 kts 287°
2026-04-07 10:35 51.56899 3.99495 32346 ft 476 kts 287°
2026-04-07 10:35 51.58942 3.89423 32342 ft 476 kts 287°
2026-04-07 10:36 51.60997 3.79242 32343 ft 476 kts 287°
2026-04-07 10:36 51.63043 3.69049 32344 ft 477 kts 286°
2026-04-07 10:37 51.65069 3.58906 32345 ft 477 kts 286°
2026-04-07 10:37 51.67097 3.48700 32346 ft 478 kts 286°
2026-04-07 10:38 51.69109 3.38515 32346 ft 478 kts 286°
2026-04-07 10:38 51.70994 3.28195 32345 ft 477 kts 282°
2026-04-07 10:39 51.72218 3.17743 32347 ft 476 kts 276°
2026-04-07 10:39 51.72753 3.07067 32344 ft 475 kts 270°
2026-04-07 10:40 51.72652 2.96438 32336 ft 474 kts 268°
2026-04-07 10:40 51.72825 2.85742 32339 ft 475 kts 270°
2026-04-07 10:41 51.73061 2.75057 32339 ft 475 kts 270°
2026-04-07 10:41 51.73257 2.64422 32335 ft 475 kts 270°
2026-04-07 10:42 51.73427 2.53739 32339 ft 475 kts 269°
2026-04-07 10:42 51.73505 2.48376 32463 ft 477 kts 269°
2026-04-07 10:42 51.73581 2.43031 32762 ft 475 kts 269°
2026-04-07 10:42 51.73652 2.37759 33083 ft 473 kts 269°
2026-04-07 10:43 51.73722 2.32442 33381 ft 471 kts 269°
2026-04-07 10:43 51.73788 2.27150 33642 ft 471 kts 269°
2026-04-07 10:43 51.73852 2.21854 33896 ft 470 kts 269°
2026-04-07 10:43 51.73913 2.16569 34142 ft 469 kts 269°
2026-04-07 10:44 51.73972 2.11289 34323 ft 469 kts 269°
2026-04-07 10:44 51.74082 2.00815 34324 ft 468 kts 269°
2026-04-07 10:45 51.74182 1.90277 34328 ft 468 kts 268°
2026-04-07 10:45 51.74274 1.79757 34328 ft 468 kts 268°
2026-04-07 10:46 51.74356 1.69196 34328 ft 468 kts 268°
2026-04-07 10:46 51.74428 1.58728 34322 ft 468 kts 268°
2026-04-07 10:47 51.74491 1.48242 34324 ft 468 kts 268°
2026-04-07 10:47 51.74545 1.37672 34316 ft 468 kts 268°
2026-04-07 10:48 51.74589 1.27201 34318 ft 469 kts 267°
2026-04-07 10:48 51.74625 1.16631 34314 ft 469 kts 267°
2026-04-07 10:49 51.74650 1.06160 34308 ft 469 kts 267°
2026-04-07 10:49 51.74666 0.95572 34304 ft 469 kts 267°
2026-04-07 10:50 51.74673 0.84964 34299 ft 470 kts 267°
2026-04-07 10:50 51.74670 0.74437 34298 ft 470 kts 266°
2026-04-07 10:51 51.74658 0.63905 34297 ft 470 kts 266°
2026-04-07 10:51 51.74637 0.53299 34290 ft 470 kts 266°
2026-04-07 10:52 51.74606 0.42764 34292 ft 470 kts 266°
2026-04-07 10:52 51.74565 0.32153 34293 ft 470 kts 266°
2026-04-07 10:53 51.74515 0.21623 34293 ft 470 kts 266°
2026-04-07 10:53 51.74455 0.10942 34290 ft 470 kts 266°
2026-04-07 10:54 51.74386 0.00410 34303 ft 470 kts 266°
2026-04-07 10:54 51.74307 -0.10125 34315 ft 470 kts 266°
2026-04-07 10:55 51.74769 -0.20701 34317 ft 477 kts 280°
2026-04-07 10:55 51.77135 -0.30790 34330 ft 482 kts 291°
2026-04-07 10:56 51.79916 -0.40606 34266 ft 481 kts 291°
2026-04-07 10:56 51.82690 -0.50500 34263 ft 481 kts 291°
2026-04-07 10:57 51.85428 -0.60391 34262 ft 480 kts 291°
2026-04-07 10:57 51.88134 -0.70239 34260 ft 480 kts 291°
2026-04-07 10:58 51.90847 -0.80169 34256 ft 479 kts 290°
2026-04-07 10:58 51.93524 -0.90011 34253 ft 479 kts 290°
2026-04-07 10:59 51.96212 -0.99937 34239 ft 479 kts 290°
2026-04-07 10:59 51.98872 -1.09801 34241 ft 478 kts 290°
2026-04-07 11:00 52.01532 -1.19714 34238 ft 478 kts 290°
2026-04-07 11:00 52.04172 -1.29586 34284 ft 477 kts 290°
2026-04-07 11:01 52.06818 -1.39528 34289 ft 477 kts 290°
2026-04-07 11:01 52.09436 -1.49401 34279 ft 477 kts 290°
2026-04-07 11:02 52.12057 -1.59336 34277 ft 476 kts 289°
2026-04-07 11:02 52.14678 -1.69319 34273 ft 476 kts 289°
2026-04-07 11:03 52.17271 -1.79238 34244 ft 476 kts 289°
2026-04-07 11:03 52.19850 -1.89144 34222 ft 476 kts 289°
2026-04-07 11:04 52.22449 -1.99168 34243 ft 477 kts 289°
2026-04-07 11:04 52.25013 -2.09102 34232 ft 476 kts 289°
2026-04-07 11:05 52.27585 -2.19110 34229 ft 476 kts 289°
2026-04-07 11:05 52.30133 -2.29067 34229 ft 476 kts 288°
2026-04-07 11:06 52.32685 -2.39086 34236 ft 475 kts 288°
2026-04-07 11:06 52.35221 -2.49084 34228 ft 475 kts 288°
2026-04-07 11:07 52.37728 -2.59016 34231 ft 474 kts 288°
2026-04-07 11:07 52.40242 -2.69022 34226 ft 473 kts 288°
2026-04-07 11:08 52.42743 -2.79021 34220 ft 472 kts 288°
2026-04-07 11:08 52.45213 -2.88941 34213 ft 472 kts 288°
2026-04-07 11:09 52.47698 -2.98961 34212 ft 472 kts 288°
2026-04-07 11:09 52.50150 -3.08901 34208 ft 471 kts 287°
2026-04-07 11:10 52.52607 -3.18901 34204 ft 471 kts 287°
2026-04-07 11:10 52.55054 -3.28910 34200 ft 471 kts 287°
2026-04-07 11:11 52.57483 -3.38891 34191 ft 471 kts 287°
2026-04-07 11:11 52.59916 -3.48927 34189 ft 470 kts 287°
2026-04-07 11:12 52.62332 -3.58946 34176 ft 470 kts 287°
2026-04-07 11:12 52.64726 -3.68912 34159 ft 469 kts 287°
2026-04-07 11:13 52.66718 -3.77243 34154 ft 469 kts 287°
2026-04-07 11:13 52.69492 -3.88897 34136 ft 468 kts 286°
2026-04-07 11:14 52.71482 -3.97294 34131 ft 468 kts 286°
2026-04-07 11:14 52.73834 -4.07267 34116 ft 468 kts 286°
2026-04-07 11:15 52.76200 -4.17343 34118 ft 469 kts 286°
2026-04-07 11:15 52.78555 -4.27418 34092 ft 469 kts 286°
2026-04-07 11:16 52.80891 -4.37461 34086 ft 469 kts 286°
2026-04-07 11:16 52.83219 -4.47514 34091 ft 470 kts 285°
2026-04-07 11:17 52.85556 -4.57652 34083 ft 470 kts 285°
2026-04-07 11:17 52.87878 -4.67780 34087 ft 470 kts 285°
2026-04-07 11:18 52.90194 -4.77927 34090 ft 470 kts 285°
2026-04-07 11:18 52.92488 -4.88025 34095 ft 470 kts 285°
2026-04-07 11:19 52.94788 -4.98197 34098 ft 470 kts 285°
2026-04-07 11:19 52.97082 -5.08388 34098 ft 471 kts 285°
2026-04-07 11:20 52.99387 -5.18685 34103 ft 475 kts 285°
2026-04-07 11:20 53.01677 -5.28953 34096 ft 476 kts 284°
2026-04-07 11:21 53.03971 -5.39305 34102 ft 476 kts 284°
2026-04-07 11:21 53.06455 -5.49516 34106 ft 480 kts 289°
2026-04-07 11:22 53.09590 -5.59420 34106 ft 485 kts 294°
2026-04-07 11:22 53.12976 -5.69189 34099 ft 485 kts 294°
2026-04-07 11:23 53.16351 -5.78941 34099 ft 486 kts 294°
2026-04-07 11:23 53.19720 -5.88746 34097 ft 486 kts 294°
2026-04-07 11:24 53.23059 -5.98517 34090 ft 487 kts 294°
2026-04-07 11:24 53.26414 -6.08377 34089 ft 487 kts 294°
2026-04-07 11:25 53.31428 -6.23192 34080 ft 488 kts 293°
2026-04-07 11:25 53.34770 -6.33113 34079 ft 489 kts 293°
2026-04-07 11:26 53.38105 -6.43062 34059 ft 489 kts 293°
2026-04-07 11:26 53.41421 -6.52988 34055 ft 489 kts 293°
2026-04-07 11:27 53.44739 -6.62958 34058 ft 489 kts 293°
2026-04-07 11:27 53.48054 -6.72959 34058 ft 489 kts 293°
2026-04-07 11:28 53.51346 -6.82935 34050 ft 489 kts 293°
2026-04-07 11:28 53.54642 -6.92963 34054 ft 489 kts 293°
2026-04-07 11:29 53.57940 -7.03041 34057 ft 489 kts 293°
2026-04-07 11:29 53.61205 -7.13058 34055 ft 489 kts 292°
2026-04-07 11:30 53.64486 -7.23167 34048 ft 489 kts 292°
2026-04-07 11:30 53.67734 -7.33213 34050 ft 489 kts 292°
2026-04-07 11:31 53.70993 -7.43336 34047 ft 489 kts 292°
2026-04-07 11:31 53.74224 -7.53415 34041 ft 489 kts 292°
2026-04-07 11:32 53.77447 -7.63510 34044 ft 489 kts 292°
2026-04-07 11:32 53.80682 -7.73683 34040 ft 489 kts 292°
2026-04-07 11:33 53.83908 -7.83872 34036 ft 489 kts 292°
2026-04-07 11:33 53.87104 -7.94010 34040 ft 489 kts 292°
2026-04-07 11:34 53.90288 -8.04152 34039 ft 488 kts 292°
2026-04-07 11:34 53.93485 -8.14376 34032 ft 488 kts 292°
2026-04-07 11:35 53.96663 -8.24589 34029 ft 488 kts 292°
2026-04-07 11:35 54.00024 -8.34606 34021 ft 490 kts 294°
2026-04-07 11:36 54.03478 -8.44628 34023 ft 490 kts 294°
2026-04-07 11:36 54.06901 -8.54610 34021 ft 489 kts 294°
2026-04-07 11:37 54.10331 -8.64665 34022 ft 489 kts 294°
2026-04-07 11:37 54.13749 -8.74737 34013 ft 489 kts 294°
2026-04-07 11:38 54.17133 -8.84755 34015 ft 489 kts 293°
2026-04-07 11:38 54.20531 -8.94853 34014 ft 489 kts 293°
2026-04-07 11:39 54.23925 -9.04981 34008 ft 489 kts 293°
2026-04-07 11:39 54.27279 -9.15031 34008 ft 488 kts 293°
2026-04-07 11:40 54.30654 -9.25187 33996 ft 488 kts 292°
2026-04-07 11:40 54.33991 -9.35272 33995 ft 488 kts 292°
2026-04-07 11:41 54.37342 -9.45439 33993 ft 488 kts 292°
2026-04-07 11:41 54.40681 -9.55612 33995 ft 488 kts 292°
2026-04-07 11:42 54.43989 -9.65734 33989 ft 488 kts 292°
2026-04-07 11:42 54.47314 -9.75949 33993 ft 488 kts 292°
2026-04-07 11:43 54.50631 -9.86182 33990 ft 488 kts 291°
2026-04-07 11:43 54.53912 -9.96350 33991 ft 488 kts 291°
2026-04-07 11:44 54.57216 -10.06630 33986 ft 488 kts 291°
2026-04-07 11:44 54.60479 -10.16828 33987 ft 488 kts 291°
2026-04-07 11:45 54.63767 -10.27148 33984 ft 488 kts 291°
2026-04-07 11:45 54.67026 -10.37419 33982 ft 489 kts 290°
2026-04-07 11:46 54.70296 -10.47771 33986 ft 489 kts 290°
2026-04-07 11:46 54.73541 -10.58085 33975 ft 489 kts 290°
2026-04-07 11:47 54.76777 -10.68417 33981 ft 489 kts 290°
2026-04-07 11:47 54.80026 -10.78832 33982 ft 489 kts 290°
2026-04-07 11:48 54.83243 -10.89193 33983 ft 489 kts 290°
2026-04-07 11:48 54.86472 -10.99637 33992 ft 489 kts 289°
2026-04-07 11:49 54.89669 -11.10023 33982 ft 489 kts 289°
2026-04-07 11:49 54.92871 -11.20474 33984 ft 488 kts 289°
2026-04-07 11:50 54.96047 -11.30883 33992 ft 489 kts 289°
2026-04-07 11:50 54.99239 -11.41389 33997 ft 489 kts 289°
2026-04-07 11:51 55.02417 -11.51898 33982 ft 489 kts 288°
2026-04-07 11:51 55.05574 -11.62383 33991 ft 489 kts 288°
2026-04-07 11:52 55.08734 -11.72925 33994 ft 489 kts 288°
2026-04-07 11:52 55.11872 -11.83441 34001 ft 490 kts 288°
2026-04-07 11:53 55.15019 -11.94032 34002 ft 490 kts 288°
2026-04-07 11:53 55.18152 -12.04627 34004 ft 491 kts 288°
2026-04-07 11:54 55.21297 -12.15308 34007 ft 491 kts 287°
2026-04-07 11:54 55.24411 -12.25934 34007 ft 492 kts 287°
2026-04-07 11:55 55.27538 -12.36650 34009 ft 492 kts 287°
2026-04-07 11:55 55.30637 -12.47320 34014 ft 492 kts 287°
2026-04-07 11:56 55.33748 -12.58080 34012 ft 491 kts 287°
2026-04-07 11:56 55.36826 -12.68775 34010 ft 491 kts 287°
2026-04-07 11:57 55.39910 -12.79542 34014 ft 490 kts 287°
2026-04-07 11:57 55.42958 -12.90231 34016 ft 489 kts 287°
2026-04-07 11:58 55.46008 -13.00980 34017 ft 489 kts 287°
2026-04-07 11:58 55.49030 -13.11675 34001 ft 488 kts 287°
2026-04-07 11:59 55.52057 -13.22446 34014 ft 488 kts 287°
2026-04-07 11:59 55.55058 -13.33168 34013 ft 488 kts 287°
2026-04-07 12:00 55.58068 -13.43974 34017 ft 488 kts 287°
2026-04-07 12:00 55.61045 -13.54710 34013 ft 488 kts 287°
2026-04-07 12:01 55.64028 -13.65520 34012 ft 488 kts 287°
2026-04-07 12:01 55.66505 -13.74528 34009 ft 488 kts 287°
2026-04-07 12:02 55.69964 -13.87168 34015 ft 488 kts 287°
2026-04-07 12:02 55.72433 -13.96242 34012 ft 489 kts 287°
2026-04-07 12:03 55.75388 -14.07144 33998 ft 489 kts 287°
2026-04-07 12:03 55.78321 -14.18017 33998 ft 490 kts 287°
2026-04-07 12:04 55.81266 -14.28987 34001 ft 490 kts 287°
2026-04-07 12:04 55.84206 -14.39990 34006 ft 491 kts 288°
2026-04-07 12:05 55.87120 -14.50947 33996 ft 491 kts 288°
2026-04-07 12:05 55.90041 -14.61986 33998 ft 491 kts 288°
2026-04-07 12:06 55.92955 -14.73053 33999 ft 490 kts 288°
2026-04-07 12:06 55.95831 -14.84025 33999 ft 490 kts 288°
2026-04-07 12:07 55.98716 -14.95097 33994 ft 489 kts 288°
2026-04-07 12:07 56.01402 -15.06182 33996 ft 486 kts 285°
2026-04-07 12:08 56.03925 -15.17434 33995 ft 485 kts 285°
2026-04-07 12:08 56.06412 -15.28609 33988 ft 485 kts 285°
2026-04-07 12:09 56.08912 -15.39877 33987 ft 484 kts 285°
2026-04-07 12:09 56.11381 -15.51060 33987 ft 484 kts 285°
2026-04-07 12:10 56.13852 -15.62302 33984 ft 483 kts 285°
2026-04-07 12:10 56.16313 -15.73560 33985 ft 483 kts 285°
2026-04-07 12:11 56.18748 -15.84761 33972 ft 483 kts 285°
2026-04-07 12:11 56.21184 -15.96031 33983 ft 482 kts 286°
2026-04-07 12:12 56.23595 -16.07239 33972 ft 482 kts 286°
2026-04-07 12:12 56.26009 -16.18523 33979 ft 482 kts 286°
2026-04-07 12:13 56.28408 -16.29802 33976 ft 481 kts 286°
2026-04-07 12:13 56.30782 -16.41024 33980 ft 480 kts 286°
2026-04-07 12:14 56.33154 -16.52295 33976 ft 479 kts 286°
2026-04-07 12:14 56.35499 -16.63503 33971 ft 479 kts 286°
2026-04-07 12:15 56.37846 -16.74787 33969 ft 478 kts 286°
2026-04-07 12:15 56.40171 -16.86025 33965 ft 477 kts 286°
2026-04-07 12:16 56.42488 -16.97288 33967 ft 476 kts 286°
2026-04-07 12:16 56.44778 -17.08479 33966 ft 475 kts 286°
2026-04-07 12:17 56.47068 -17.19733 33961 ft 475 kts 286°
2026-04-07 12:17 56.49331 -17.30920 33959 ft 474 kts 286°
2026-04-07 12:18 56.51593 -17.42166 33955 ft 473 kts 286°
2026-04-07 12:18 56.53826 -17.53329 33945 ft 472 kts 286°
2026-04-07 12:19 56.56062 -17.64574 33947 ft 472 kts 286°
2026-04-07 12:19 56.58273 -17.75756 33948 ft 471 kts 286°
2026-04-07 12:20 56.60481 -17.86992 33943 ft 471 kts 286°
2026-04-07 12:20 56.62664 -17.98160 33943 ft 470 kts 286°
2026-04-07 12:21 56.64844 -18.09373 33939 ft 470 kts 286°
2026-04-07 12:21 56.67014 -18.20605 33938 ft 469 kts 286°
2026-04-07 12:22 56.69158 -18.31767 33935 ft 469 kts 286°
2026-04-07 12:22 56.71303 -18.42995 33933 ft 468 kts 286°
2026-04-07 12:23 56.73437 -18.54232 33928 ft 467 kts 286°
2026-04-07 12:23 56.75543 -18.65389 33924 ft 467 kts 286°
2026-04-07 12:24 56.77649 -18.76609 33924 ft 466 kts 286°
2026-04-07 12:24 56.79731 -18.87769 33922 ft 465 kts 286°
2026-04-07 12:25 56.81813 -18.98996 33915 ft 465 kts 286°
2026-04-07 12:25 56.83879 -19.10202 33908 ft 464 kts 286°
2026-04-07 12:26 56.85921 -19.21340 33909 ft 463 kts 286°
2026-04-07 12:26 56.87963 -19.32548 33910 ft 462 kts 286°
2026-04-07 12:27 56.89975 -19.43663 33901 ft 461 kts 286°
2026-04-07 12:27 56.91985 -19.54826 33902 ft 460 kts 286°
2026-04-07 12:28 56.93983 -19.65993 33898 ft 459 kts 286°
2026-04-07 12:29 56.96942 -19.82655 33892 ft 458 kts 285°
2026-04-07 12:29 56.98907 -19.93816 33890 ft 457 kts 285°
2026-04-07 12:30 57.00703 -20.04958 33882 ft 455 kts 283°
2026-04-07 12:30 57.02300 -20.16156 33888 ft 455 kts 283°
2026-04-07 12:31 57.03888 -20.27421 33879 ft 454 kts 283°
2026-04-07 12:31 57.05459 -20.38635 33876 ft 453 kts 282°
2026-04-07 12:32 57.07025 -20.49888 33871 ft 452 kts 282°
2026-04-07 12:32 57.08571 -20.61069 33870 ft 451 kts 282°
2026-04-07 12:33 57.10110 -20.72284 33864 ft 450 kts 282°
2026-04-07 12:33 57.11628 -20.83423 33862 ft 450 kts 282°
2026-04-07 12:34 57.13142 -20.94623 33858 ft 449 kts 282°
2026-04-07 12:34 57.14644 -21.05808 33857 ft 448 kts 282°
2026-04-07 12:35 57.16124 -21.16922 33854 ft 448 kts 282°
2026-04-07 12:35 57.17604 -21.28109 33845 ft 447 kts 282°
2026-04-07 12:36 57.19071 -21.39283 33845 ft 446 kts 282°
2026-04-07 12:36 57.20517 -21.50385 33840 ft 446 kts 282°
2026-04-07 12:37 57.21960 -21.61544 33840 ft 446 kts 282°
2026-04-07 12:37 57.23390 -21.72696 33934 ft 448 kts 282°
2026-04-07 12:37 57.24105 -21.78300 34179 ft 447 kts 282°
2026-04-07 12:38 57.24815 -21.83890 34417 ft 446 kts 282°
2026-04-07 12:38 57.25514 -21.89412 34610 ft 446 kts 282°
2026-04-07 12:38 57.26226 -21.95051 34784 ft 447 kts 281°
2026-04-07 12:38 57.26921 -22.00589 34947 ft 448 kts 281°
2026-04-07 12:39 57.27626 -22.06222 35131 ft 448 kts 281°
2026-04-07 12:39 57.28330 -22.11875 35301 ft 448 kts 281°
2026-04-07 12:39 57.29031 -22.17521 35465 ft 449 kts 281°
2026-04-07 12:39 57.29719 -22.23088 35620 ft 449 kts 281°
2026-04-07 12:40 57.30418 -22.28762 35780 ft 450 kts 281°
2026-04-07 12:40 57.31797 -22.40033 35808 ft 450 kts 281°
2026-04-07 12:41 57.33173 -22.51365 35811 ft 449 kts 281°
2026-04-07 12:41 57.34536 -22.62688 35808 ft 449 kts 281°
2026-04-07 12:42 57.35881 -22.73952 35804 ft 449 kts 281°
2026-04-07 12:42 57.37221 -22.85270 35799 ft 448 kts 281°
2026-04-07 12:43 57.38554 -22.96613 35797 ft 448 kts 281°
2026-04-07 12:43 57.39862 -23.07849 35794 ft 447 kts 281°
2026-04-07 12:44 57.41168 -23.19152 35790 ft 447 kts 281°
2026-04-07 12:44 57.42466 -23.30482 35784 ft 447 kts 280°
2026-04-07 12:45 57.43744 -23.41743 35784 ft 446 kts 280°
2026-04-07 12:45 57.45018 -23.53055 35780 ft 446 kts 280°
2026-04-07 12:46 57.46279 -23.64353 35777 ft 446 kts 280°
2026-04-07 12:46 57.47521 -23.75579 35772 ft 445 kts 280°
2026-04-07 12:47 57.48762 -23.86895 35766 ft 445 kts 280°
2026-04-07 12:47 57.49992 -23.98213 35762 ft 445 kts 280°
2026-04-07 12:48 57.51206 -24.09479 35754 ft 445 kts 280°
2026-04-07 12:48 57.52409 -24.20743 35759 ft 444 kts 279°
2026-04-07 12:49 57.53606 -24.32057 35749 ft 444 kts 279°
2026-04-07 12:49 57.54793 -24.43379 35746 ft 444 kts 279°
2026-04-07 12:50 57.55962 -24.54629 35737 ft 444 kts 279°
2026-04-07 12:50 57.57121 -24.65892 35738 ft 443 kts 279°
2026-04-07 12:51 57.58276 -24.77219 35732 ft 443 kts 279°
2026-04-07 12:51 57.59416 -24.88504 35733 ft 443 kts 279°
2026-04-07 12:52 57.60548 -24.99818 35727 ft 443 kts 279°
2026-04-07 12:52 57.61482 -25.09240 35722 ft 443 kts 279°
2026-04-07 12:53 57.62777 -25.22413 35717 ft 442 kts 279°
2026-04-07 12:53 57.63693 -25.31829 35715 ft 442 kts 279°
2026-04-07 12:54 57.64787 -25.43174 35716 ft 442 kts 278°
2026-04-07 12:54 57.65861 -25.54424 35708 ft 442 kts 278°
2026-04-07 12:55 57.66932 -25.65762 35702 ft 441 kts 278°
2026-04-07 12:55 57.67994 -25.77107 35700 ft 441 kts 278°
2026-04-07 12:56 57.69039 -25.88399 35701 ft 441 kts 278°
2026-04-07 12:56 57.70080 -25.99745 35696 ft 441 kts 278°
2026-04-07 12:57 57.71103 -26.11027 35692 ft 441 kts 278°
2026-04-07 12:57 57.72124 -26.22391 35685 ft 441 kts 278°
2026-04-07 12:58 57.73134 -26.33765 35684 ft 441 kts 278°
2026-04-07 12:58 57.74127 -26.45062 35680 ft 441 kts 277°
2026-04-07 12:59 57.75117 -26.56444 35676 ft 441 kts 277°
2026-04-07 12:59 57.76092 -26.67781 35672 ft 441 kts 277°
2026-04-07 13:00 57.77061 -26.79171 35668 ft 441 kts 277°
2026-04-07 13:00 57.78013 -26.90482 35664 ft 441 kts 277°
2026-04-07 13:01 57.78965 -27.01922 35661 ft 441 kts 277°
2026-04-07 13:01 57.79900 -27.13289 35655 ft 441 kts 277°
2026-04-07 13:02 57.80828 -27.24709 35653 ft 441 kts 277°
2026-04-07 13:02 57.81740 -27.36054 35652 ft 441 kts 277°
2026-04-07 13:03 57.82643 -27.47431 35645 ft 441 kts 276°
2026-04-07 13:03 57.83543 -27.58893 35642 ft 441 kts 276°
2026-04-07 13:04 57.84426 -27.70271 35635 ft 442 kts 276°
2026-04-07 13:04 57.85303 -27.81705 35631 ft 441 kts 276°
2026-04-07 13:05 57.86170 -27.93166 35627 ft 441 kts 276°
2026-04-07 13:05 57.87021 -28.04553 35623 ft 441 kts 276°
2026-04-07 13:06 57.87867 -28.16009 35617 ft 441 kts 276°
2026-04-07 13:06 57.88700 -28.27434 35614 ft 442 kts 276°
2026-04-07 13:07 57.89526 -28.38911 35609 ft 442 kts 275°
2026-04-07 13:07 57.90337 -28.50322 35609 ft 441 kts 275°
2026-04-07 13:08 57.91143 -28.61824 35598 ft 441 kts 275°
2026-04-07 13:08 57.91938 -28.73324 35595 ft 441 kts 275°
2026-04-07 13:09 57.92718 -28.84743 35593 ft 442 kts 275°
2026-04-07 13:09 57.93489 -28.96204 35586 ft 441 kts 275°
2026-04-07 13:10 57.94254 -29.07721 35587 ft 441 kts 275°
2026-04-07 13:10 57.95004 -29.19188 35573 ft 442 kts 275°
2026-04-07 13:11 57.95748 -29.30720 35580 ft 442 kts 274°
2026-04-07 13:11 57.96477 -29.42183 35564 ft 442 kts 274°
2026-04-07 13:12 57.97201 -29.53730 35563 ft 442 kts 274°
2026-04-07 13:12 57.97909 -29.65196 35560 ft 442 kts 274°
2026-04-07 13:13 57.98610 -29.76734 35554 ft 442 kts 274°
2026-04-07 13:13 57.99292 -29.88314 35546 ft 442 kts 272°
2026-04-07 13:14 57.99567 -29.99811 35546 ft 440 kts 268°
2026-04-07 13:14 57.99266 -30.11354 35539 ft 439 kts 263°
2026-04-07 13:15 57.98594 -30.22824 35537 ft 439 kts 262°
2026-04-07 13:15 57.97908 -30.34234 35528 ft 439 kts 262°
2026-04-07 13:16 57.97203 -30.45715 35525 ft 439 kts 262°
2026-04-07 13:16 57.96490 -30.57136 35521 ft 439 kts 262°
2026-04-07 13:17 57.95761 -30.68618 35515 ft 439 kts 262°
2026-04-07 13:17 57.95027 -30.80010 35509 ft 439 kts 261°
2026-04-07 13:18 57.94278 -30.91474 35506 ft 439 kts 261°
2026-04-07 13:18 57.93523 -31.02867 35500 ft 439 kts 261°
2026-04-07 13:19 57.92753 -31.14331 35495 ft 439 kts 261°
2026-04-07 13:19 57.91977 -31.25721 35490 ft 440 kts 261°
2026-04-07 13:20 57.91186 -31.37171 35485 ft 440 kts 261°
2026-04-07 13:20 57.90392 -31.48524 35481 ft 440 kts 261°
2026-04-07 13:21 57.89581 -31.59950 35472 ft 440 kts 260°
2026-04-07 13:21 57.88760 -31.71387 35469 ft 440 kts 260°
2026-04-07 13:22 57.87932 -31.82756 35464 ft 440 kts 260°
2026-04-07 13:22 57.87089 -31.94192 35455 ft 440 kts 260°
2026-04-07 13:23 57.86239 -32.05581 35449 ft 440 kts 260°
2026-04-07 13:23 57.85378 -32.16979 35445 ft 440 kts 259°
2026-04-07 13:24 57.84511 -32.28310 35439 ft 440 kts 259°
2026-04-07 13:24 57.83626 -32.39740 35434 ft 441 kts 259°
2026-04-07 13:25 57.82736 -32.51102 35430 ft 441 kts 259°
2026-04-07 13:25 57.81829 -32.62529 35423 ft 441 kts 259°
2026-04-07 13:26 57.80912 -32.73969 35422 ft 442 kts 259°
2026-04-07 13:26 57.79989 -32.85340 35417 ft 442 kts 259°
2026-04-07 13:27 57.79054 -32.96717 35406 ft 442 kts 258°
2026-04-07 13:27 57.78104 -33.08153 35394 ft 443 kts 258°
2026-04-07 13:28 57.77149 -33.19531 35391 ft 443 kts 258°
2026-04-07 13:28 57.76177 -33.30972 35382 ft 443 kts 258°
2026-04-07 13:29 57.75195 -33.42406 35379 ft 444 kts 258°
2026-04-07 13:29 57.74202 -33.53836 35374 ft 444 kts 258°
2026-04-07 13:30 57.73202 -33.65227 35357 ft 444 kts 258°
2026-04-07 13:30 57.72185 -33.76683 35350 ft 445 kts 258°
2026-04-07 13:31 57.71158 -33.88134 35349 ft 445 kts 257°
2026-04-07 13:31 57.70127 -33.99515 35333 ft 446 kts 257°
2026-04-07 13:32 57.69074 -34.11005 35332 ft 446 kts 257°
2026-04-07 13:32 57.68017 -34.22430 35320 ft 447 kts 257°
2026-04-07 13:33 57.66947 -34.33875 35318 ft 447 kts 257°
2026-04-07 13:33 57.65316 -34.51092 35305 ft 448 kts 257°
2026-04-07 13:34 57.64214 -34.62587 35300 ft 448 kts 257°
2026-04-07 13:34 57.63108 -34.74000 35285 ft 449 kts 257°
2026-04-07 13:35 57.61981 -34.85518 35279 ft 449 kts 257°
2026-04-07 13:35 57.60852 -34.96943 35271 ft 449 kts 256°
2026-04-07 13:36 57.59704 -35.08448 35263 ft 450 kts 256°
2026-04-07 13:36 57.58551 -35.19895 35254 ft 450 kts 256°
2026-04-07 13:37 57.57377 -35.31438 35247 ft 451 kts 256°
2026-04-07 13:37 57.56194 -35.42960 35235 ft 451 kts 256°
2026-04-07 13:38 57.55005 -35.54426 35232 ft 452 kts 256°
2026-04-07 13:38 57.53804 -35.65909 35213 ft 452 kts 256°
2026-04-07 13:39 57.52792 -35.75499 35219 ft 453 kts 256°
2026-04-07 13:39 57.51359 -35.88948 35200 ft 453 kts 256°
2026-04-07 13:40 57.50329 -35.98536 35206 ft 453 kts 256°
2026-04-07 13:40 57.49079 -36.10067 35188 ft 454 kts 256°
2026-04-07 13:41 57.47826 -36.21513 35183 ft 454 kts 255°
2026-04-07 13:41 57.46551 -36.33073 35174 ft 455 kts 255°
2026-04-07 13:42 57.45266 -36.44607 35166 ft 455 kts 255°
2026-04-07 13:42 57.43975 -36.56099 35157 ft 456 kts 255°
2026-04-07 13:43 57.42665 -36.67652 35149 ft 456 kts 255°
2026-04-07 13:43 57.41342 -36.79229 35143 ft 457 kts 255°
2026-04-07 13:44 57.40018 -36.90707 35134 ft 457 kts 255°
2026-04-07 13:44 57.38672 -37.02277 35127 ft 457 kts 255°
2026-04-07 13:45 57.37314 -37.13849 35119 ft 458 kts 255°
2026-04-07 13:45 57.35955 -37.25330 35114 ft 458 kts 255°
2026-04-07 13:46 57.34575 -37.36894 35107 ft 458 kts 255°
2026-04-07 13:46 57.33183 -37.48459 35094 ft 459 kts 255°
2026-04-07 13:47 57.31790 -37.59940 35088 ft 459 kts 254°
2026-04-07 13:47 57.30377 -37.71488 35083 ft 459 kts 254°
2026-04-07 13:48 57.28954 -37.83024 35077 ft 459 kts 254°
2026-04-07 13:48 57.27517 -37.94576 35068 ft 459 kts 254°
2026-04-07 13:49 57.26078 -38.06052 35062 ft 460 kts 254°
2026-04-07 13:49 57.24619 -38.17590 35057 ft 460 kts 254°
2026-04-07 13:50 57.23155 -38.29081 35047 ft 460 kts 254°
2026-04-07 13:50 57.21670 -38.40644 35042 ft 460 kts 254°
2026-04-07 13:51 57.20191 -38.52065 35036 ft 460 kts 253°
2026-04-07 13:51 57.18688 -38.63592 35029 ft 461 kts 253°
2026-04-07 13:52 57.17171 -38.75121 35028 ft 461 kts 253°
2026-04-07 13:52 57.15653 -38.86582 35021 ft 461 kts 253°
2026-04-07 13:53 57.14116 -38.98090 35016 ft 461 kts 253°
2026-04-07 13:53 57.12577 -39.09528 35013 ft 461 kts 253°
2026-04-07 13:54 57.11016 -39.21039 35006 ft 462 kts 253°
2026-04-07 13:54 57.09454 -39.32473 35003 ft 462 kts 253°
2026-04-07 13:55 57.07872 -39.43965 35002 ft 462 kts 253°
2026-04-07 13:55 57.06279 -39.55451 34999 ft 462 kts 253°
2026-04-07 13:56 57.04684 -39.66870 34997 ft 462 kts 253°
2026-04-07 13:56 57.03072 -39.78326 34989 ft 462 kts 253°
2026-04-07 13:57 57.01456 -39.89704 34989 ft 462 kts 253°
2026-04-07 13:57 57.00060 -40.01273 34996 ft 465 kts 257°
2026-04-07 13:58 56.99215 -40.13104 35000 ft 466 kts 261°
2026-04-07 13:58 56.98509 -40.24898 34995 ft 466 kts 261°
2026-04-07 13:59 56.97794 -40.36705 34995 ft 467 kts 261°
2026-04-07 13:59 56.97066 -40.48555 34998 ft 467 kts 261°
2026-04-07 14:00 56.96326 -40.60410 34997 ft 467 kts 260°
2026-04-07 14:00 56.95573 -40.72305 34997 ft 467 kts 260°
2026-04-07 14:01 56.94815 -40.84096 35000 ft 468 kts 260°
2026-04-07 14:01 56.94039 -40.95978 35001 ft 467 kts 260°
2026-04-07 14:02 56.93257 -41.07792 35004 ft 468 kts 260°
2026-04-07 14:02 56.92459 -41.19648 35005 ft 468 kts 260°
2026-04-07 14:03 56.91656 -41.31425 35010 ft 468 kts 260°
2026-04-07 14:03 56.90836 -41.43282 35007 ft 468 kts 260°
2026-04-07 14:04 56.90010 -41.55054 35014 ft 468 kts 260°
2026-04-07 14:04 56.89165 -41.66940 35011 ft 469 kts 260°
2026-04-07 14:05 56.88314 -41.78740 35017 ft 469 kts 260°
2026-04-07 14:05 56.87448 -41.90593 35015 ft 469 kts 260°
2026-04-07 14:06 56.86570 -42.02449 35027 ft 469 kts 259°
2026-04-07 14:06 56.85686 -42.14231 35031 ft 469 kts 259°
2026-04-07 14:07 56.84784 -42.26090 35036 ft 469 kts 259°
2026-04-07 14:07 56.83876 -42.37885 35038 ft 469 kts 259°
2026-04-07 14:08 56.82953 -42.49732 35041 ft 469 kts 259°
2026-04-07 14:08 56.82023 -42.61505 35040 ft 469 kts 259°
2026-04-07 14:09 56.81077 -42.73335 35045 ft 469 kts 259°
2026-04-07 14:09 56.80127 -42.85074 35050 ft 469 kts 259°
2026-04-07 14:10 56.79157 -42.96913 35046 ft 469 kts 259°
2026-04-07 14:10 56.78182 -43.08684 35055 ft 469 kts 259°
2026-04-07 14:11 56.77198 -43.20410 35053 ft 469 kts 259°
2026-04-07 14:11 56.76197 -43.32208 35057 ft 469 kts 259°
2026-04-07 14:12 56.75189 -43.43940 35057 ft 469 kts 259°
2026-04-07 14:12 56.74165 -43.55735 35057 ft 469 kts 259°
2026-04-07 14:13 56.73131 -43.67489 35060 ft 469 kts 259°
2026-04-07 14:13 56.72090 -43.79197 35057 ft 469 kts 258°
2026-04-07 14:14 56.71034 -43.90945 35061 ft 469 kts 258°
2026-04-07 14:14 56.69973 -44.02629 35063 ft 469 kts 258°
2026-04-07 14:15 56.68895 -44.14370 35066 ft 469 kts 258°
2026-04-07 14:15 56.67812 -44.26042 35063 ft 469 kts 258°
2026-04-07 14:16 56.66716 -44.37733 35063 ft 469 kts 258°
2026-04-07 14:16 56.65605 -44.49459 35062 ft 468 kts 258°
2026-04-07 14:17 56.64490 -44.61103 35064 ft 468 kts 258°
2026-04-07 14:17 56.63355 -44.72828 35065 ft 468 kts 258°
2026-04-07 14:18 56.62221 -44.84436 35061 ft 468 kts 258°
2026-04-07 14:18 56.61066 -44.96128 35064 ft 468 kts 258°
2026-04-07 14:19 56.59912 -45.07706 35058 ft 468 kts 257°
2026-04-07 14:19 56.58736 -45.19371 35053 ft 468 kts 257°
2026-04-07 14:20 56.57552 -45.31005 35053 ft 467 kts 257°
2026-04-07 14:20 56.56360 -45.42597 35051 ft 467 kts 257°
2026-04-07 14:21 56.55161 -45.54140 35049 ft 467 kts 257°
2026-04-07 14:21 56.53943 -45.65763 35043 ft 467 kts 257°
2026-04-07 14:22 56.52721 -45.77316 35045 ft 467 kts 257°
2026-04-07 14:22 56.51487 -45.88882 35039 ft 467 kts 257°
2026-04-07 14:23 56.50248 -46.00384 35034 ft 467 kts 257°
2026-04-07 14:23 56.48996 -46.11906 35030 ft 467 kts 257°
2026-04-07 14:24 56.47730 -46.23444 35029 ft 467 kts 257°
2026-04-07 14:24 56.46450 -46.35004 35026 ft 466 kts 256°
2026-04-07 14:25 56.45161 -46.46540 35024 ft 466 kts 256°
2026-04-07 14:25 56.43873 -46.57973 35023 ft 466 kts 256°
2026-04-07 14:26 56.42564 -46.69487 35006 ft 466 kts 256°
2026-04-07 14:26 56.41250 -46.80936 35017 ft 466 kts 256°
2026-04-07 14:27 56.39922 -46.92421 35016 ft 466 kts 256°
2026-04-07 14:27 56.38588 -47.03849 35014 ft 466 kts 256°
2026-04-07 14:28 56.37236 -47.15331 35007 ft 465 kts 256°
2026-04-07 14:28 56.35886 -47.26708 35001 ft 465 kts 256°
2026-04-07 14:29 56.34747 -47.36220 35003 ft 465 kts 256°
2026-04-07 14:29 56.33371 -47.47636 35007 ft 465 kts 256°
2026-04-07 14:30 56.31983 -47.59056 35000 ft 465 kts 255°
2026-04-07 14:30 56.30584 -47.70469 35005 ft 465 kts 255°
2026-04-07 14:31 56.29183 -47.81805 35007 ft 465 kts 255°
2026-04-07 14:31 56.27772 -47.93129 35007 ft 464 kts 255°
2026-04-07 14:32 56.26341 -48.04521 35004 ft 464 kts 255°
2026-04-07 14:32 56.24911 -48.15818 35004 ft 464 kts 255°
2026-04-07 14:33 56.23465 -48.27158 35010 ft 464 kts 255°
2026-04-07 14:33 56.22006 -48.38510 35013 ft 464 kts 255°
2026-04-07 14:34 56.20548 -48.49775 35019 ft 464 kts 255°
2026-04-07 14:34 56.19079 -48.61025 35026 ft 464 kts 255°
2026-04-07 14:35 56.17592 -48.72323 35028 ft 463 kts 254°
2026-04-07 14:35 56.16092 -48.83627 35036 ft 463 kts 254°
2026-04-07 14:36 56.14596 -48.94820 35041 ft 463 kts 254°
2026-04-07 14:36 56.13080 -49.06081 35052 ft 463 kts 254°
2026-04-07 14:37 56.11553 -49.17327 35059 ft 463 kts 254°
2026-04-07 14:37 56.10027 -49.28494 35054 ft 463 kts 254°
2026-04-07 14:38 56.08481 -49.39721 35067 ft 463 kts 254°
2026-04-07 14:38 56.06932 -49.50885 35076 ft 462 kts 253°
2026-04-07 14:39 56.04582 -49.67673 35090 ft 462 kts 253°
2026-04-07 14:40 56.03003 -49.78845 35096 ft 462 kts 253°
2026-04-07 14:40 56.01419 -49.89970 35105 ft 462 kts 253°
2026-04-07 14:41 55.99580 -50.00947 35111 ft 461 kts 248°
2026-04-07 14:41 55.97175 -50.11572 35123 ft 460 kts 245°
2026-04-07 14:42 55.94648 -50.22048 35126 ft 460 kts 245°
2026-04-07 14:42 55.92107 -50.32534 35138 ft 459 kts 245°
2026-04-07 14:43 55.89551 -50.43021 35146 ft 459 kts 245°
2026-04-07 14:43 55.87001 -50.53430 35159 ft 459 kts 245°
2026-04-07 14:44 55.84433 -50.63860 35166 ft 458 kts 244°
2026-04-07 14:44 55.81876 -50.74195 35177 ft 457 kts 244°
2026-04-07 14:45 55.79305 -50.84537 35183 ft 456 kts 244°
2026-04-07 14:45 55.76742 -50.94798 35198 ft 455 kts 244°
2026-04-07 14:46 55.74158 -51.05095 35208 ft 454 kts 244°
2026-04-07 14:46 55.71572 -51.15353 35219 ft 453 kts 244°
2026-04-07 14:47 55.68999 -51.25510 35230 ft 453 kts 244°
2026-04-07 14:47 55.66397 -51.35734 35240 ft 452 kts 244°
2026-04-07 14:48 55.63810 -51.45857 35254 ft 451 kts 243°
2026-04-07 14:48 55.61204 -51.56005 35267 ft 452 kts 243°
2026-04-07 14:49 55.58603 -51.66090 35279 ft 452 kts 243°
2026-04-07 14:49 55.55986 -51.76189 35288 ft 452 kts 243°
2026-04-07 14:50 55.53352 -51.86309 35300 ft 452 kts 243°
2026-04-07 14:50 55.50730 -51.96339 35307 ft 452 kts 243°
2026-04-07 14:51 55.48078 -52.06437 35316 ft 452 kts 243°
2026-04-07 14:51 55.45415 -52.16533 35328 ft 452 kts 243°
2026-04-07 14:52 55.42760 -52.26554 35330 ft 452 kts 243°
2026-04-07 14:52 55.40078 -52.36628 35344 ft 452 kts 243°
2026-04-07 14:53 55.37404 -52.46634 35359 ft 452 kts 243°
2026-04-07 14:53 55.34711 -52.56662 35369 ft 452 kts 243°
2026-04-07 14:54 55.32006 -52.66693 35380 ft 453 kts 243°
2026-04-07 14:54 55.29316 -52.76625 35388 ft 452 kts 242°
2026-04-07 14:55 55.26598 -52.86616 35398 ft 452 kts 242°
2026-04-07 14:55 55.23883 -52.96553 35410 ft 452 kts 242°
2026-04-07 14:56 55.21146 -53.06523 35419 ft 452 kts 242°
2026-04-07 14:56 55.18419 -53.16421 35430 ft 452 kts 242°
2026-04-07 14:57 55.15674 -53.26337 35431 ft 452 kts 242°
2026-04-07 14:57 55.12926 -53.36221 35449 ft 452 kts 242°
2026-04-07 14:58 55.10163 -53.46116 35458 ft 452 kts 242°
2026-04-07 14:58 55.07412 -53.55929 35469 ft 451 kts 242°
2026-04-07 14:59 55.04633 -53.65799 35483 ft 451 kts 242°
2026-04-07 14:59 55.01856 -53.75616 35488 ft 451 kts 242°
2026-04-07 15:00 54.99084 -53.85377 35509 ft 451 kts 242°
2026-04-07 15:00 54.96286 -53.95190 35504 ft 451 kts 242°
2026-04-07 15:01 54.93465 -54.05039 35714 ft 452 kts 241°
2026-04-07 15:01 54.92076 -54.09872 35902 ft 451 kts 241°
2026-04-07 15:01 54.90672 -54.14752 36057 ft 451 kts 241°
2026-04-07 15:01 54.89259 -54.19648 36209 ft 450 kts 241°
2026-04-07 15:02 54.87848 -54.24528 36332 ft 450 kts 241°
2026-04-07 15:02 54.86452 -54.29347 36438 ft 451 kts 241°
2026-04-07 15:02 54.85037 -54.34222 36563 ft 451 kts 241°
2026-04-07 15:02 54.83620 -54.39093 36667 ft 451 kts 241°
2026-04-07 15:03 54.82197 -54.43973 36771 ft 451 kts 241°
2026-04-07 15:03 54.79363 -54.53669 36969 ft 451 kts 241°
2026-04-07 15:03 54.77941 -54.58515 37070 ft 451 kts 241°
2026-04-07 15:04 54.76512 -54.63379 37156 ft 451 kts 241°
2026-04-07 15:04 54.73662 -54.73047 37326 ft 451 kts 241°
2026-04-07 15:05 54.70793 -54.82735 37477 ft 451 kts 241°
2026-04-07 15:05 54.67918 -54.92408 37592 ft 451 kts 241°
2026-04-07 15:06 54.65055 -55.02000 37608 ft 451 kts 241°
2026-04-07 15:06 54.62164 -55.11647 37617 ft 451 kts 240°
2026-04-07 15:07 54.59262 -55.21292 37624 ft 451 kts 240°
2026-04-07 15:07 54.56370 -55.30863 37634 ft 451 kts 240°
2026-04-07 15:08 54.53468 -55.40429 37645 ft 451 kts 240°
2026-04-07 15:08 54.50547 -55.50021 37647 ft 451 kts 240°
2026-04-07 15:09 54.47631 -55.59555 37655 ft 451 kts 240°
2026-04-07 15:09 54.44692 -55.69128 37660 ft 451 kts 240°
2026-04-07 15:10 54.41770 -55.78608 37667 ft 451 kts 240°
2026-04-07 15:10 54.38821 -55.88137 37672 ft 451 kts 240°
2026-04-07 15:11 54.35857 -55.97675 37672 ft 451 kts 240°
2026-04-07 15:11 54.32910 -56.07123 37686 ft 451 kts 240°
2026-04-07 15:12 54.29933 -56.16628 37691 ft 451 kts 240°
2026-04-07 15:12 54.26957 -56.26096 37697 ft 451 kts 240°
2026-04-07 15:13 54.23970 -56.35558 37699 ft 451 kts 240°
2026-04-07 15:13 54.20988 -56.44968 37707 ft 451 kts 240°
2026-04-07 15:14 54.18002 -56.54356 37718 ft 451 kts 240°
2026-04-07 15:14 54.15008 -56.63731 37722 ft 451 kts 240°
2026-04-07 15:15 54.12502 -56.71552 37722 ft 451 kts 240°
2026-04-07 15:15 54.08983 -56.82484 37729 ft 451 kts 240°
2026-04-07 15:16 54.06579 -56.90400 37732 ft 452 kts 243°
2026-04-07 15:16 54.04150 -57.00322 37739 ft 454 kts 248°
2026-04-07 15:17 54.02280 -57.10545 37740 ft 455 kts 253°
2026-04-07 15:17 54.00938 -57.21138 37737 ft 457 kts 256°
2026-04-07 15:18 53.99738 -57.31772 37731 ft 456 kts 256°
2026-04-07 15:18 53.98538 -57.42333 37739 ft 456 kts 256°
2026-04-07 15:19 53.97329 -57.52913 37739 ft 456 kts 256°
2026-04-07 15:19 53.96106 -57.63535 37741 ft 456 kts 256°
2026-04-07 15:20 53.94878 -57.74113 37749 ft 456 kts 256°
2026-04-07 15:20 53.93645 -57.84644 37754 ft 456 kts 256°
2026-04-07 15:21 53.92398 -57.95217 37758 ft 456 kts 256°
2026-04-07 15:21 53.91140 -58.05802 37767 ft 456 kts 256°
2026-04-07 15:22 53.89883 -58.16291 37774 ft 456 kts 256°
2026-04-07 15:22 53.88606 -58.26860 37778 ft 456 kts 256°
2026-04-07 15:23 53.87331 -58.37336 37787 ft 456 kts 256°
2026-04-07 15:23 53.86031 -58.47928 37795 ft 456 kts 255°
2026-04-07 15:24 53.84733 -58.58423 37805 ft 456 kts 255°
2026-04-07 15:24 53.83419 -58.68967 37811 ft 456 kts 255°
2026-04-07 15:25 53.82104 -58.79448 37820 ft 456 kts 255°
2026-04-07 15:25 53.80778 -58.89924 37830 ft 456 kts 255°
2026-04-07 15:26 53.79436 -59.00457 37836 ft 456 kts 255°
2026-04-07 15:26 53.78087 -59.10962 37843 ft 456 kts 255°
2026-04-07 15:27 53.76736 -59.21399 37850 ft 456 kts 255°
2026-04-07 15:27 53.75370 -59.31882 37852 ft 455 kts 255°
2026-04-07 15:28 53.73999 -59.42330 37862 ft 455 kts 255°
2026-04-07 15:28 53.72613 -59.52809 37864 ft 455 kts 255°
2026-04-07 15:29 53.71221 -59.63257 37874 ft 455 kts 255°
2026-04-07 15:29 53.69829 -59.73634 37879 ft 454 kts 255°
2026-04-07 15:30 53.68428 -59.84004 37883 ft 454 kts 254°
2026-04-07 15:30 53.67009 -59.94434 37889 ft 454 kts 254°
2026-04-07 15:31 53.65584 -60.04834 37890 ft 454 kts 254°
2026-04-07 15:31 53.64159 -60.15154 37895 ft 453 kts 254°
2026-04-07 15:32 53.62716 -60.25545 37900 ft 453 kts 254°
2026-04-07 15:32 53.61265 -60.35914 37901 ft 453 kts 254°
2026-04-07 15:33 53.59810 -60.46242 37908 ft 453 kts 254°
2026-04-07 15:33 53.58351 -60.56535 37907 ft 453 kts 254°
2026-04-07 15:34 53.56876 -60.66863 37912 ft 453 kts 254°
2026-04-07 15:34 53.55385 -60.77235 37918 ft 454 kts 253°
2026-04-07 15:35 53.53899 -60.87502 37925 ft 454 kts 253°
2026-04-07 15:35 53.52391 -60.97852 37921 ft 454 kts 253°
2026-04-07 15:36 53.50876 -61.08190 37934 ft 454 kts 253°
2026-04-07 15:36 53.49361 -61.18454 37943 ft 454 kts 253°
2026-04-07 15:37 53.47827 -61.28780 37944 ft 454 kts 253°
2026-04-07 15:37 53.46299 -61.38996 37942 ft 453 kts 253°
2026-04-07 15:38 53.44750 -61.49289 37954 ft 453 kts 253°
2026-04-07 15:38 53.43200 -61.59527 37957 ft 453 kts 253°
2026-04-07 15:39 53.41632 -61.69813 37955 ft 453 kts 253°
2026-04-07 15:39 53.40059 -61.80066 37964 ft 452 kts 253°
2026-04-07 15:40 53.38489 -61.90235 37955 ft 452 kts 253°
2026-04-07 15:40 53.36899 -62.00476 37964 ft 452 kts 253°
2026-04-07 15:41 53.35314 -62.10613 37958 ft 452 kts 253°
2026-04-07 15:41 53.33707 -62.20835 37966 ft 452 kts 253°
2026-04-07 15:42 53.32103 -62.30969 37969 ft 452 kts 253°
2026-04-07 15:42 53.29667 -62.46245 37975 ft 452 kts 253°
2026-04-07 15:43 53.28027 -62.56449 37982 ft 455 kts 253°
2026-04-07 15:43 53.26376 -62.66662 37982 ft 458 kts 253°
2026-04-07 15:44 53.24700 -62.76971 37985 ft 458 kts 253°
2026-04-07 15:44 53.23029 -62.87185 37989 ft 458 kts 252°
2026-04-07 15:45 53.21336 -62.97471 37989 ft 458 kts 252°
2026-04-07 15:45 53.19631 -63.07767 37994 ft 459 kts 252°
2026-04-07 15:46 53.17926 -63.18002 37995 ft 459 kts 252°
2026-04-07 15:46 53.16202 -63.28288 38000 ft 459 kts 252°
2026-04-07 15:47 53.14479 -63.38511 38000 ft 460 kts 252°
2026-04-07 15:47 53.12734 -63.48800 38006 ft 460 kts 252°
2026-04-07 15:48 53.10977 -63.59098 38008 ft 460 kts 252°
2026-04-07 15:48 53.09223 -63.69324 38013 ft 461 kts 252°
2026-04-07 15:49 53.07457 -63.79557 38017 ft 460 kts 252°
2026-04-07 15:49 53.05677 -63.89813 38021 ft 460 kts 252°
2026-04-07 15:50 53.03885 -64.00076 38022 ft 460 kts 252°
2026-04-07 15:50 53.02104 -64.10220 38025 ft 459 kts 252°
2026-04-07 15:51 53.00300 -64.20439 38030 ft 459 kts 252°
2026-04-07 15:51 52.98492 -64.30622 38037 ft 458 kts 252°
2026-04-07 15:52 52.96685 -64.40740 38043 ft 458 kts 252°
2026-04-07 15:52 52.94864 -64.50880 38040 ft 457 kts 252°
2026-04-07 15:53 52.93036 -64.61002 38042 ft 457 kts 252°
2026-04-07 15:53 52.91209 -64.71066 38042 ft 457 kts 252°
2026-04-07 15:54 52.89375 -64.81113 38041 ft 457 kts 252°
2026-04-07 15:54 52.87519 -64.91225 38048 ft 456 kts 252°
2026-04-07 15:55 52.85666 -65.01261 38048 ft 456 kts 252°
2026-04-07 15:55 52.83796 -65.11339 38051 ft 456 kts 252°
2026-04-07 15:56 52.81933 -65.21321 38053 ft 456 kts 252°
2026-04-07 15:56 52.80048 -65.31369 38052 ft 456 kts 252°
2026-04-07 15:57 52.78166 -65.41348 38055 ft 456 kts 252°
2026-04-07 15:57 52.76264 -65.51379 38059 ft 455 kts 252°
2026-04-07 15:58 52.74362 -65.61359 38064 ft 455 kts 252°
2026-04-07 15:58 52.72449 -65.71340 38064 ft 455 kts 252°
2026-04-07 15:59 52.70539 -65.81258 38070 ft 455 kts 252°
2026-04-07 15:59 52.68613 -65.91208 38073 ft 455 kts 252°
2026-04-07 16:00 52.66687 -66.01102 38075 ft 454 kts 251°
2026-04-07 16:00 52.64745 -66.11031 38083 ft 454 kts 251°
2026-04-07 16:01 52.62799 -66.20925 38087 ft 454 kts 251°
2026-04-07 16:01 52.60838 -66.30840 38092 ft 454 kts 251°
2026-04-07 16:02 52.58879 -66.40688 38093 ft 454 kts 251°
2026-04-07 16:02 52.56903 -66.50579 38095 ft 454 kts 251°
2026-04-07 16:03 52.54917 -66.60475 38102 ft 454 kts 251°
2026-04-07 16:03 52.52938 -66.70294 38103 ft 454 kts 251°
2026-04-07 16:04 52.50947 -66.80116 38116 ft 454 kts 251°
2026-04-07 16:04 52.49276 -66.88323 38112 ft 454 kts 251°
2026-04-07 16:05 52.47251 -66.98168 38116 ft 454 kts 250°
2026-04-07 16:05 52.44921 -67.07770 38125 ft 454 kts 247°
2026-04-07 16:06 52.42502 -67.17402 38133 ft 454 kts 247°
2026-04-07 16:06 52.40100 -67.26925 38136 ft 454 kts 247°
2026-04-07 16:07 52.37670 -67.36515 38140 ft 454 kts 247°
2026-04-07 16:07 52.35252 -67.46011 38146 ft 454 kts 247°
2026-04-07 16:08 52.32810 -67.55556 38156 ft 454 kts 247°
2026-04-07 16:08 52.30369 -67.65062 38159 ft 454 kts 247°
2026-04-07 16:09 52.27908 -67.74600 38163 ft 454 kts 247°
2026-04-07 16:09 52.25459 -67.84055 38165 ft 454 kts 247°
2026-04-07 16:10 52.22986 -67.93561 38174 ft 454 kts 247°
2026-04-07 16:10 52.20508 -68.03048 38176 ft 453 kts 247°
2026-04-07 16:11 52.18021 -68.12530 38185 ft 453 kts 246°
2026-04-07 16:11 52.15541 -68.21945 38186 ft 453 kts 246°
2026-04-07 16:12 52.13051 -68.31360 38191 ft 453 kts 246°
2026-04-07 16:12 52.10544 -68.40797 38189 ft 453 kts 246°
2026-04-07 16:13 52.08043 -68.50174 38212 ft 453 kts 246°
2026-04-07 16:13 52.05518 -68.59606 38206 ft 453 kts 246°
2026-04-07 16:14 52.03004 -68.68954 38205 ft 453 kts 246°
2026-04-07 16:14 52.00460 -68.78380 38218 ft 453 kts 246°
2026-04-07 16:15 51.97928 -68.87718 38226 ft 453 kts 246°
2026-04-07 16:15 51.95373 -68.97105 38223 ft 453 kts 246°
2026-04-07 16:16 51.92829 -69.06415 38222 ft 453 kts 246°
2026-04-07 16:16 51.90258 -69.15785 38233 ft 453 kts 246°
2026-04-07 16:17 51.87693 -69.25097 38230 ft 453 kts 246°
2026-04-07 16:17 51.85122 -69.34389 38231 ft 454 kts 246°
2026-04-07 16:18 51.82529 -69.43729 38236 ft 454 kts 246°
2026-04-07 16:18 51.79927 -69.53060 38240 ft 454 kts 246°
2026-04-07 16:19 51.77333 -69.62327 38248 ft 454 kts 246°
2026-04-07 16:19 51.74712 -69.71654 38242 ft 454 kts 245°
2026-04-07 16:20 51.72106 -69.80890 38252 ft 454 kts 245°
2026-04-07 16:20 51.69473 -69.90185 38253 ft 454 kts 245°
2026-04-07 16:21 51.66849 -69.99410 38253 ft 454 kts 245°
2026-04-07 16:21 51.64198 -70.08697 38258 ft 454 kts 245°
2026-04-07 16:22 51.61559 -70.17903 38260 ft 454 kts 245°
2026-04-07 16:22 51.58893 -70.27168 38258 ft 454 kts 245°
2026-04-07 16:23 51.56242 -70.36346 38264 ft 454 kts 245°
2026-04-07 16:23 51.53561 -70.45592 38270 ft 454 kts 245°
2026-04-07 16:24 51.50888 -70.54773 38272 ft 454 kts 245°
2026-04-07 16:24 51.48194 -70.63994 38276 ft 455 kts 245°
2026-04-07 16:25 51.45507 -70.73152 38279 ft 455 kts 245°
2026-04-07 16:25 51.42808 -70.82316 38291 ft 455 kts 245°
2026-04-07 16:26 51.40089 -70.91513 38297 ft 455 kts 245°
2026-04-07 16:26 51.37379 -71.00647 38291 ft 455 kts 245°
2026-04-07 16:27 51.34649 -71.09814 38294 ft 455 kts 245°
2026-04-07 16:27 51.31921 -71.18935 38295 ft 455 kts 245°
2026-04-07 16:28 51.29197 -71.28011 38297 ft 454 kts 245°
2026-04-07 16:28 51.26447 -71.37141 38297 ft 454 kts 245°
2026-04-07 16:29 51.23701 -71.46220 38296 ft 454 kts 245°
2026-04-07 16:29 51.20940 -71.55317 38293 ft 454 kts 244°
2026-04-07 16:30 51.18187 -71.64351 38298 ft 454 kts 244°
2026-04-07 16:30 51.15410 -71.73435 38299 ft 454 kts 244°
2026-04-07 16:31 51.12641 -71.82455 38302 ft 454 kts 244°
2026-04-07 16:31 51.09852 -71.91509 38309 ft 454 kts 244°
2026-04-07 16:32 51.07051 -72.00568 38315 ft 454 kts 244°
2026-04-07 16:32 51.04266 -72.09546 38323 ft 455 kts 244°
2026-04-07 16:33 51.01451 -72.18582 38328 ft 455 kts 244°
2026-04-07 16:33 50.98605 -72.27529 38329 ft 455 kts 242°
2026-04-07 16:34 50.95326 -72.36108 38328 ft 455 kts 237°
2026-04-07 16:34 50.91611 -72.44304 38327 ft 456 kts 235°
2026-04-07 16:35 50.87881 -72.52432 38328 ft 456 kts 235°
2026-04-07 16:35 50.84130 -72.60573 38331 ft 457 kts 235°
2026-04-07 16:36 50.80367 -72.68706 38330 ft 457 kts 235°
2026-04-07 16:36 50.76611 -72.76794 38330 ft 457 kts 235°
2026-04-07 16:37 50.72851 -72.84864 38334 ft 457 kts 235°
2026-04-07 16:37 50.69082 -72.92929 38330 ft 457 kts 235°
2026-04-07 16:38 50.65287 -73.01021 38330 ft 457 kts 235°
2026-04-07 16:38 50.61511 -73.09052 38327 ft 457 kts 234°
2026-04-07 16:39 50.57706 -73.17116 38330 ft 457 kts 234°
2026-04-07 16:39 50.53912 -73.25135 38331 ft 457 kts 234°
2026-04-07 16:40 50.50111 -73.33143 38336 ft 458 kts 234°
2026-04-07 16:40 50.46285 -73.41178 38327 ft 458 kts 234°
2026-04-07 16:41 50.42474 -73.49159 38330 ft 458 kts 234°
2026-04-07 16:41 50.38629 -73.57185 38333 ft 458 kts 234°
2026-04-07 16:42 50.34810 -73.65134 38333 ft 458 kts 234°
2026-04-07 16:42 50.30975 -73.73092 38327 ft 458 kts 234°
2026-04-07 16:43 50.27106 -73.81095 38332 ft 458 kts 234°
2026-04-07 16:43 50.23263 -73.89021 38322 ft 458 kts 234°
2026-04-07 16:44 50.19409 -73.96945 38341 ft 458 kts 234°
2026-04-07 16:44 50.15534 -74.04888 38314 ft 458 kts 234°
2026-04-07 16:45 50.11677 -74.12771 38332 ft 458 kts 234°
2026-04-07 16:45 50.07789 -74.20695 38329 ft 459 kts 234°
2026-04-07 16:46 50.03919 -74.28556 38310 ft 459 kts 234°
2026-04-07 16:46 50.00023 -74.36449 38289 ft 459 kts 234°
2026-04-07 16:47 49.96143 -74.44284 38268 ft 459 kts 234°
2026-04-07 16:47 49.92231 -74.52160 38250 ft 459 kts 234°
2026-04-07 16:48 49.88314 -74.60024 38242 ft 459 kts 234°
2026-04-07 16:49 49.82461 -74.71730 38245 ft 459 kts 233°
2026-04-07 16:49 49.78527 -74.79570 38257 ft 459 kts 233°
2026-04-07 16:50 49.74612 -74.87347 38280 ft 459 kts 233°
2026-04-07 16:50 49.70661 -74.95174 38294 ft 459 kts 233°
2026-04-07 16:51 49.66737 -75.02924 38332 ft 460 kts 233°
2026-04-07 16:51 49.62780 -75.10717 38342 ft 460 kts 233°
2026-04-07 16:52 49.58840 -75.18454 38343 ft 460 kts 233°
2026-04-07 16:52 49.54868 -75.26229 38346 ft 460 kts 233°
2026-04-07 16:53 49.50923 -75.33930 38349 ft 460 kts 233°
2026-04-07 16:53 49.47618 -75.40365 38348 ft 460 kts 233°
2026-04-07 16:54 49.43628 -75.48113 38354 ft 460 kts 233°
2026-04-07 16:54 49.39661 -75.55791 38354 ft 460 kts 233°
2026-04-07 16:55 49.35668 -75.63500 38360 ft 460 kts 233°
2026-04-07 16:55 49.31682 -75.71173 38358 ft 460 kts 233°
2026-04-07 16:56 49.27695 -75.78825 38360 ft 460 kts 233°
2026-04-07 16:56 49.23680 -75.86507 38358 ft 461 kts 233°
2026-04-07 16:57 49.19687 -75.94126 38372 ft 461 kts 233°
2026-04-07 16:57 49.15671 -76.01769 38362 ft 461 kts 233°
2026-04-07 16:58 49.11635 -76.09426 38372 ft 461 kts 233°
2026-04-07 16:58 49.07619 -76.17024 38373 ft 461 kts 233°
2026-04-07 16:59 49.03575 -76.24652 38374 ft 461 kts 233°
2026-04-07 16:59 48.99553 -76.32219 38377 ft 461 kts 233°
2026-04-07 17:00 48.95502 -76.39816 38383 ft 461 kts 233°
2026-04-07 17:00 48.91454 -76.47388 38384 ft 461 kts 233°
2026-04-07 17:01 48.87384 -76.54978 38392 ft 461 kts 233°
2026-04-07 17:01 48.83320 -76.62535 38378 ft 461 kts 233°
2026-04-07 17:02 48.79265 -76.70061 38390 ft 461 kts 233°
2026-04-07 17:02 48.75181 -76.77617 38398 ft 461 kts 233°
2026-04-07 17:03 48.71121 -76.85105 38397 ft 461 kts 233°
2026-04-07 17:03 48.67033 -76.92623 38401 ft 462 kts 233°
2026-04-07 17:04 48.62958 -77.00094 38401 ft 462 kts 233°
2026-04-07 17:04 48.58844 -77.07616 38402 ft 462 kts 233°
2026-04-07 17:05 48.54766 -77.15054 38401 ft 462 kts 233°
2026-04-07 17:05 48.50658 -77.22522 38405 ft 462 kts 233°
2026-04-07 17:06 48.46536 -77.29997 38409 ft 462 kts 233°
2026-04-07 17:06 48.42439 -77.37406 38411 ft 462 kts 233°
2026-04-07 17:07 48.38339 -77.44799 38411 ft 461 kts 233°
2026-04-07 17:07 48.34204 -77.52236 38405 ft 462 kts 233°
2026-04-07 17:08 48.30082 -77.59628 38385 ft 462 kts 233°
2026-04-07 17:08 48.25941 -77.67035 38371 ft 462 kts 233°
2026-04-07 17:09 48.21819 -77.74386 38355 ft 462 kts 233°
2026-04-07 17:09 48.17556 -77.81623 38341 ft 463 kts 229°
2026-04-07 17:10 48.12872 -77.88268 38334 ft 465 kts 225°
2026-04-07 17:10 48.08041 -77.94782 38337 ft 465 kts 225°
2026-04-07 17:11 48.03245 -78.01242 38350 ft 465 kts 225°
2026-04-07 17:11 47.98410 -78.07730 38370 ft 466 kts 225°
2026-04-07 17:12 47.93602 -78.14161 38386 ft 466 kts 225°
2026-04-07 17:12 47.88763 -78.20615 38407 ft 466 kts 225°
2026-04-07 17:13 47.83935 -78.27036 38416 ft 466 kts 225°
2026-04-07 17:13 47.79079 -78.33479 38419 ft 466 kts 225°
2026-04-07 17:14 47.74248 -78.39870 38419 ft 466 kts 225°
2026-04-07 17:14 47.69416 -78.46247 38421 ft 466 kts 225°
2026-04-07 17:15 47.64547 -78.52655 38424 ft 466 kts 225°
2026-04-07 17:15 47.59703 -78.59014 38422 ft 466 kts 225°
2026-04-07 17:16 47.54849 -78.65371 38425 ft 466 kts 225°
2026-04-07 17:16 47.49963 -78.71753 38443 ft 466 kts 225°
2026-04-07 17:17 47.45103 -78.78085 38420 ft 466 kts 225°
2026-04-07 17:17 47.40253 -78.84387 38436 ft 466 kts 225°
2026-04-07 17:18 47.35365 -78.90723 38437 ft 466 kts 225°
2026-04-07 17:18 47.30505 -78.97006 38431 ft 466 kts 225°
2026-04-07 17:19 47.25610 -79.03318 38436 ft 466 kts 225°
2026-04-07 17:19 47.20729 -79.09596 38435 ft 466 kts 225°
2026-04-07 17:20 47.15853 -79.15852 38436 ft 466 kts 225°
2026-04-07 17:20 47.10968 -79.22103 38440 ft 466 kts 225°
2026-04-07 17:21 47.06048 -79.28382 38438 ft 466 kts 225°
2026-04-07 17:21 47.01168 -79.34597 38443 ft 467 kts 225°
2026-04-07 17:22 46.96237 -79.40858 38441 ft 467 kts 225°
2026-04-07 17:22 46.91345 -79.47055 38440 ft 467 kts 225°
2026-04-07 17:23 46.86411 -79.53291 38447 ft 466 kts 225°
2026-04-07 17:23 46.81507 -79.59471 38437 ft 466 kts 225°
2026-04-07 17:24 46.76608 -79.65631 38443 ft 466 kts 225°
2026-04-07 17:24 46.71666 -79.71830 38444 ft 466 kts 225°
2026-04-07 17:25 46.66766 -79.77960 38442 ft 466 kts 225°
2026-04-07 17:25 46.61845 -79.84101 38461 ft 466 kts 225°
2026-04-07 17:26 46.56897 -79.90260 38456 ft 466 kts 225°
2026-04-07 17:26 46.51977 -79.96359 38470 ft 467 kts 226°
2026-04-07 17:27 46.47019 -80.02498 38464 ft 467 kts 227°
2026-04-07 17:27 46.42079 -80.08613 38464 ft 467 kts 227°
2026-04-07 17:28 46.37114 -80.14739 38464 ft 467 kts 226°
2026-04-07 17:28 46.32172 -80.20816 38468 ft 468 kts 226°
2026-04-07 17:29 46.27198 -80.26918 38475 ft 468 kts 226°
2026-04-07 17:29 46.22227 -80.33000 38480 ft 468 kts 226°
2026-04-07 17:30 46.17268 -80.39053 38491 ft 468 kts 226°
2026-04-07 17:30 46.12263 -80.45146 38490 ft 468 kts 226°
2026-04-07 17:31 46.07280 -80.51198 38493 ft 469 kts 226°
2026-04-07 17:31 46.02301 -80.57230 38497 ft 469 kts 226°
2026-04-07 17:32 45.97317 -80.63254 38504 ft 469 kts 226°
2026-04-07 17:32 45.92293 -80.69311 38510 ft 470 kts 226°
2026-04-07 17:33 45.87277 -80.75345 38519 ft 470 kts 226°
2026-04-07 17:33 45.82269 -80.81354 38525 ft 470 kts 226°
2026-04-07 17:34 45.77263 -80.87346 38530 ft 470 kts 226°
2026-04-07 17:34 45.72292 -80.93412 38530 ft 468 kts 229°
2026-04-07 17:35 45.67701 -81.00001 38537 ft 463 kts 234°
2026-04-07 17:35 45.63638 -81.07054 38540 ft 459 kts 239°
2026-04-07 17:36 45.60050 -81.14577 38544 ft 456 kts 243°
2026-04-07 17:36 45.56609 -81.22156 38543 ft 456 kts 243°
2026-04-07 17:37 45.53143 -81.29767 38551 ft 456 kts 243°
2026-04-07 17:37 45.49674 -81.37371 38550 ft 456 kts 243°
2026-04-07 17:38 45.46221 -81.44923 38551 ft 456 kts 243°
2026-04-07 17:38 45.42744 -81.52508 38554 ft 456 kts 243°
2026-04-07 17:39 45.39275 -81.60054 38558 ft 456 kts 243°
2026-04-07 17:39 45.35808 -81.67578 38565 ft 456 kts 243°
2026-04-07 17:40 45.32313 -81.75142 38562 ft 456 kts 243°
2026-04-07 17:40 45.28836 -81.82648 38564 ft 456 kts 243°
2026-04-07 17:41 45.25330 -81.90195 38566 ft 456 kts 243°
2026-04-07 17:41 45.21824 -81.97724 38568 ft 456 kts 243°
2026-04-07 17:42 45.18330 -82.05205 38576 ft 456 kts 243°
2026-04-07 17:42 45.14825 -82.12691 38586 ft 456 kts 243°
2026-04-07 17:43 45.11322 -82.20153 38586 ft 456 kts 243°
2026-04-07 17:43 45.07812 -82.27612 38582 ft 456 kts 243°
2026-04-07 17:44 45.04876 -82.33836 38590 ft 456 kts 243°
2026-04-07 17:44 45.01341 -82.41312 38584 ft 456 kts 243°
2026-04-07 17:45 44.97821 -82.48733 38587 ft 456 kts 243°
2026-04-07 17:45 44.94271 -82.56203 38582 ft 456 kts 243°
2026-04-07 17:46 44.90744 -82.63602 38586 ft 455 kts 243°
2026-04-07 17:46 44.87185 -82.71052 38590 ft 455 kts 243°
2026-04-07 17:47 44.83651 -82.78429 38583 ft 455 kts 243°
2026-04-07 17:47 44.80110 -82.85799 38585 ft 455 kts 242°
2026-04-07 17:48 44.76544 -82.93206 38583 ft 455 kts 242°
2026-04-07 17:48 44.72972 -83.00605 38580 ft 455 kts 242°
2026-04-07 17:49 44.69428 -83.07929 38578 ft 455 kts 242°
2026-04-07 17:49 44.65857 -83.15287 38570 ft 455 kts 242°
2026-04-07 17:50 44.62311 -83.22610 38561 ft 454 kts 243°
2026-04-07 17:50 44.58816 -83.30064 38551 ft 454 kts 243°
2026-04-07 17:51 44.55362 -83.37437 38543 ft 454 kts 243°
2026-04-07 17:51 44.51868 -83.44860 38547 ft 453 kts 243°
2026-04-07 17:52 44.48392 -83.52221 38549 ft 453 kts 243°
2026-04-07 17:52 44.44922 -83.59548 38548 ft 453 kts 243°
2026-04-07 17:53 44.41436 -83.66888 38557 ft 453 kts 243°
2026-04-07 17:53 44.36197 -83.77884 38558 ft 453 kts 243°
2026-04-07 17:54 44.32689 -83.85223 38559 ft 453 kts 243°
2026-04-07 17:54 44.29174 -83.92558 38565 ft 453 kts 243°
2026-04-07 17:55 44.25676 -83.99840 38566 ft 453 kts 243°
2026-04-07 17:55 44.22168 -84.07122 38565 ft 453 kts 243°
2026-04-07 17:56 44.18639 -84.14431 38557 ft 452 kts 243°
2026-04-07 17:56 44.15123 -84.21697 38556 ft 452 kts 243°
2026-04-07 17:57 44.11609 -84.28937 38548 ft 452 kts 243°
2026-04-07 17:57 44.08069 -84.36215 38549 ft 452 kts 243°
2026-04-07 17:58 44.04544 -84.43442 38541 ft 452 kts 243°
2026-04-07 17:58 44.00988 -84.50716 38545 ft 452 kts 243°
2026-04-07 17:59 43.97456 -84.57923 38542 ft 452 kts 243°
2026-04-07 17:59 43.93899 -84.65163 38544 ft 452 kts 243°
2026-04-07 18:00 43.90337 -84.72396 38549 ft 453 kts 243°
2026-04-07 18:00 43.86791 -84.79577 38558 ft 453 kts 243°
2026-04-07 18:01 43.83216 -84.86800 38560 ft 453 kts 243°
2026-04-07 18:01 43.79658 -84.93968 38559 ft 453 kts 243°
2026-04-07 18:02 43.76075 -85.01172 38558 ft 452 kts 243°
2026-04-07 18:02 43.72514 -85.08315 38561 ft 452 kts 243°
2026-04-07 18:03 43.68920 -85.15505 38545 ft 452 kts 243°
2026-04-07 18:03 43.65350 -85.22628 38542 ft 452 kts 243°
2026-04-07 18:04 43.61774 -85.29749 38538 ft 452 kts 243°
2026-04-07 18:04 43.58173 -85.36900 38534 ft 452 kts 243°
2026-04-07 18:05 43.54577 -85.44024 38548 ft 452 kts 243°
2026-04-07 18:05 43.50993 -85.51108 38538 ft 451 kts 243°
2026-04-07 18:06 43.47409 -85.58174 38548 ft 451 kts 243°
2026-04-07 18:06 43.43806 -85.65262 38553 ft 451 kts 243°
2026-04-07 18:07 43.40189 -85.72358 38549 ft 450 kts 243°
2026-04-07 18:07 43.36605 -85.79374 38554 ft 450 kts 243°
2026-04-07 18:08 43.32985 -85.86443 38551 ft 450 kts 243°
2026-04-07 18:08 43.29386 -85.93454 38551 ft 449 kts 243°
2026-04-07 18:09 43.25789 -86.00445 38553 ft 449 kts 243°
2026-04-07 18:09 43.22187 -86.07430 38557 ft 449 kts 243°
2026-04-07 18:10 43.18564 -86.14438 38552 ft 448 kts 243°
2026-04-07 18:10 43.14963 -86.21389 38548 ft 448 kts 242°
2026-04-07 18:11 43.11342 -86.28361 38549 ft 448 kts 242°
2026-04-07 18:11 43.07716 -86.35326 38560 ft 447 kts 242°
2026-04-07 18:12 43.04111 -86.42234 38564 ft 447 kts 242°
2026-04-07 18:12 43.00487 -86.49163 38572 ft 447 kts 242°
2026-04-07 18:13 42.98654 -86.52664 38687 ft 449 kts 242°
2026-04-07 18:13 42.96857 -86.56087 38936 ft 447 kts 242°
2026-04-07 18:13 42.95033 -86.59559 39172 ft 446 kts 242°
2026-04-07 18:13 42.93219 -86.63010 39361 ft 446 kts 242°
2026-04-07 18:14 42.91423 -86.66424 39488 ft 446 kts 242°
2026-04-07 18:14 42.89603 -86.69877 39627 ft 446 kts 242°
2026-04-07 18:14 42.87784 -86.73326 39733 ft 446 kts 242°
2026-04-07 18:14 42.85962 -86.76777 39860 ft 446 kts 242°
2026-04-07 18:15 42.84167 -86.80171 39975 ft 446 kts 241°
2026-04-07 18:15 42.82345 -86.83612 40092 ft 447 kts 241°
2026-04-07 18:15 42.80520 -86.87055 40198 ft 447 kts 241°
2026-04-07 18:15 42.78693 -86.90498 40299 ft 447 kts 241°
2026-04-07 18:16 42.76886 -86.93899 40401 ft 447 kts 241°
2026-04-07 18:16 42.75051 -86.97347 40496 ft 447 kts 241°
2026-04-07 18:16 42.71411 -87.04178 40577 ft 448 kts 241°
2026-04-07 18:17 42.67739 -87.11052 40581 ft 448 kts 240°
2026-04-07 18:17 42.64081 -87.17886 40581 ft 448 kts 240°
2026-04-07 18:18 42.60399 -87.24748 40583 ft 448 kts 240°
2026-04-07 18:18 42.56732 -87.31568 40583 ft 448 kts 240°
2026-04-07 18:19 42.53042 -87.38416 40585 ft 448 kts 240°
2026-04-07 18:19 42.49367 -87.45219 40575 ft 448 kts 240°
2026-04-07 18:20 42.45663 -87.52060 40569 ft 448 kts 240°
2026-04-07 18:20 42.41988 -87.58832 40563 ft 448 kts 240°
2026-04-07 18:21 42.38274 -87.65662 40554 ft 449 kts 240°
2026-04-07 18:21 42.34577 -87.72443 40549 ft 449 kts 240°
2026-04-07 18:22 42.30857 -87.79253 40547 ft 449 kts 240°
2026-04-07 18:22 42.27158 -87.86010 40549 ft 449 kts 240°
2026-04-07 18:23 42.23421 -87.92817 40557 ft 449 kts 239°
2026-04-07 18:23 42.19661 -87.99510 40559 ft 450 kts 238°
2026-04-07 18:24 42.15790 -88.06181 40558 ft 450 kts 238°
2026-04-07 18:24 42.11946 -88.12796 40556 ft 450 kts 238°
2026-04-07 18:25 42.08072 -88.19462 40531 ft 450 kts 238°
2026-04-07 18:25 42.04230 -88.26065 40525 ft 450 kts 238°
2026-04-07 18:26 42.00355 -88.32710 40519 ft 449 kts 238°
2026-04-07 18:26 41.96506 -88.39300 40521 ft 449 kts 238°
2026-04-07 18:27 41.92629 -88.45921 40526 ft 449 kts 238°
2026-04-07 18:27 41.88808 -88.52429 40514 ft 443 kts 238°
2026-04-07 18:28 41.84983 -88.58936 40512 ft 442 kts 238°
2026-04-07 18:28 41.81158 -88.65429 40519 ft 442 kts 238°
2026-04-07 18:29 41.77357 -88.71867 40524 ft 442 kts 238°
2026-04-07 18:29 41.74172 -88.77249 40522 ft 441 kts 238°
2026-04-07 18:30 41.69722 -88.84756 40528 ft 441 kts 238°
2026-04-07 18:30 41.65908 -88.91173 40525 ft 441 kts 238°
2026-04-07 18:31 41.62723 -88.96523 40527 ft 441 kts 238°
2026-04-07 18:31 41.58886 -89.02954 40521 ft 440 kts 238°
2026-04-07 18:32 41.55073 -89.09333 40517 ft 440 kts 238°
2026-04-07 18:32 41.51240 -89.15730 40515 ft 440 kts 238°
2026-04-07 18:33 41.47422 -89.22088 40513 ft 440 kts 238°
2026-04-07 18:33 41.43584 -89.28468 40516 ft 439 kts 237°
2026-04-07 18:34 41.39770 -89.34795 40508 ft 439 kts 237°
2026-04-07 18:34 41.35927 -89.41156 40513 ft 439 kts 237°
2026-04-07 18:35 41.32109 -89.47463 40517 ft 439 kts 237°
2026-04-07 18:35 41.28261 -89.53806 40520 ft 439 kts 237°
2026-04-07 18:36 41.24432 -89.60103 40520 ft 439 kts 237°
2026-04-07 18:36 41.20573 -89.66438 40519 ft 439 kts 237°
2026-04-07 18:37 41.16741 -89.72715 40514 ft 439 kts 237°
2026-04-07 18:37 41.12894 -89.79004 40518 ft 439 kts 237°
2026-04-07 18:38 41.09030 -89.85309 40513 ft 439 kts 237°
2026-04-07 18:38 41.05182 -89.91573 40508 ft 440 kts 237°
2026-04-07 18:39 41.01132 -89.97727 40507 ft 444 kts 232°
2026-04-07 18:39 40.96613 -90.03378 40501 ft 449 kts 227°
2026-04-07 18:40 40.91723 -90.08538 40498 ft 451 kts 225°
2026-04-07 18:40 40.86775 -90.13664 40497 ft 451 kts 225°
2026-04-07 18:41 40.81841 -90.18764 40507 ft 451 kts 225°
2026-04-07 18:41 40.76868 -90.23892 40495 ft 451 kts 224°
2026-04-07 18:42 40.71925 -90.28977 40492 ft 451 kts 224°
2026-04-07 18:42 40.66990 -90.34043 40494 ft 451 kts 224°
2026-04-07 18:43 40.62042 -90.39114 40505 ft 451 kts 224°
2026-04-07 18:43 40.57072 -90.44197 40506 ft 451 kts 224°
2026-04-07 18:44 40.52139 -90.49232 40505 ft 451 kts 224°
2026-04-07 18:44 40.47175 -90.54290 40508 ft 450 kts 224°
2026-04-07 18:45 40.42226 -90.59321 40510 ft 450 kts 224°
2026-04-07 18:45 40.37253 -90.64369 40501 ft 450 kts 224°
2026-04-07 18:46 40.32310 -90.69376 40499 ft 450 kts 224°
2026-04-07 18:46 40.27363 -90.74378 40486 ft 450 kts 224°
2026-04-07 18:47 40.22392 -90.79393 40481 ft 450 kts 224°
2026-04-07 18:47 40.17412 -90.84409 40480 ft 450 kts 224°
2026-04-07 18:48 40.12474 -90.89373 40472 ft 450 kts 224°
2026-04-07 18:48 40.07495 -90.94369 40464 ft 449 kts 224°
2026-04-07 18:49 40.02525 -90.99347 40456 ft 449 kts 224°
2026-04-07 18:49 39.97581 -91.04289 40454 ft 449 kts 224°
2026-04-07 18:50 39.92615 -91.09244 40453 ft 449 kts 224°
2026-04-07 18:50 39.87661 -91.14178 40459 ft 449 kts 224°
2026-04-07 18:51 39.82706 -91.19102 40457 ft 449 kts 223°
2026-04-07 18:51 39.77728 -91.24042 40305 ft 449 kts 223°
2026-04-07 18:52 39.75239 -91.26507 40450 ft 449 kts 223°
2026-04-07 18:52 39.72781 -91.28940 40449 ft 449 kts 223°
2026-04-07 18:52 39.67803 -91.33861 40447 ft 448 kts 223°
2026-04-07 18:53 39.62854 -91.38744 40444 ft 448 kts 223°
2026-04-07 18:53 39.57875 -91.43647 40444 ft 448 kts 223°
2026-04-07 18:54 39.52888 -91.48550 40440 ft 448 kts 223°
2026-04-07 18:54 39.47920 -91.53425 40439 ft 448 kts 223°
2026-04-07 18:55 39.42979 -91.58264 40433 ft 448 kts 223°
2026-04-07 18:55 39.38005 -91.63127 40416 ft 448 kts 223°
2026-04-07 18:56 39.33037 -91.67975 40412 ft 448 kts 223°
2026-04-07 18:56 39.28050 -91.72832 40405 ft 447 kts 223°
2026-04-07 18:57 39.23063 -91.77681 40400 ft 447 kts 223°
2026-04-07 18:57 39.18103 -91.82496 40400 ft 447 kts 223°
2026-04-07 18:58 39.13152 -91.87292 40391 ft 447 kts 223°
2026-04-07 18:58 39.08173 -91.92108 40393 ft 446 kts 223°
2026-04-07 18:59 39.03209 -91.96878 40390 ft 447 kts 221°
2026-04-07 18:59 38.97927 -92.01260 40382 ft 452 kts 216°
2026-04-07 19:00 38.92358 -92.05041 40379 ft 454 kts 214°
2026-04-07 19:00 38.86754 -92.08755 40381 ft 454 kts 214°
2026-04-07 19:01 38.81117 -92.12485 40373 ft 454 kts 214°
2026-04-07 19:02 38.72701 -92.18037 40371 ft 454 kts 214°
2026-04-07 19:02 38.67054 -92.21754 40382 ft 454 kts 213°
2026-04-07 19:03 38.61443 -92.25439 40377 ft 455 kts 213°
2026-04-07 19:03 38.55825 -92.29123 40371 ft 455 kts 213°
2026-04-07 19:04 38.50176 -92.32820 40368 ft 455 kts 213°
2026-04-07 19:04 38.44569 -92.36484 40365 ft 455 kts 213°
2026-04-07 19:05 38.38900 -92.40181 40358 ft 455 kts 213°
2026-04-07 19:05 38.33276 -92.43842 40340 ft 455 kts 213°
2026-04-07 19:06 38.27646 -92.47501 40337 ft 455 kts 213°
2026-04-07 19:06 38.21985 -92.51173 40328 ft 455 kts 213°
2026-04-07 19:07 38.16333 -92.54833 40329 ft 455 kts 213°
2026-04-07 19:07 38.10685 -92.58484 40328 ft 455 kts 213°
2026-04-07 19:08 38.05058 -92.62116 40326 ft 455 kts 213°
2026-04-07 19:08 37.99412 -92.65754 40318 ft 455 kts 213°
2026-04-07 19:09 37.93761 -92.69388 40317 ft 455 kts 213°
2026-04-07 19:09 37.88127 -92.73005 40318 ft 455 kts 213°
2026-04-07 19:10 37.82485 -92.76621 40320 ft 455 kts 213°
2026-04-07 19:10 37.76859 -92.80221 40318 ft 455 kts 213°
2026-04-07 19:11 37.71202 -92.83834 40318 ft 455 kts 213°
2026-04-07 19:11 37.65575 -92.87422 40317 ft 454 kts 213°
2026-04-07 19:12 37.59908 -92.91029 40314 ft 454 kts 213°
2026-04-07 19:12 37.54275 -92.94608 40312 ft 455 kts 213°
2026-04-07 19:13 37.48613 -92.98200 40306 ft 455 kts 213°
2026-04-07 19:13 37.42982 -93.01767 40296 ft 455 kts 213°
2026-04-07 19:14 37.37315 -93.05349 40288 ft 454 kts 213°
2026-04-07 19:14 37.31672 -93.08910 40281 ft 454 kts 212°
2026-04-07 19:15 37.26042 -93.12457 40275 ft 454 kts 212°
2026-04-07 19:15 37.20368 -93.16026 40272 ft 454 kts 212°
2026-04-07 19:16 37.14737 -93.19562 40271 ft 454 kts 212°
2026-04-07 19:16 37.09055 -93.23124 40272 ft 454 kts 212°
2026-04-07 19:17 37.03429 -93.26644 40275 ft 454 kts 212°
2026-04-07 19:17 36.97759 -93.30187 40270 ft 454 kts 212°
2026-04-07 19:18 36.92121 -93.33704 40269 ft 454 kts 212°
2026-04-07 19:18 36.86445 -93.37238 40261 ft 454 kts 212°
2026-04-07 19:19 36.81742 -93.40162 40258 ft 455 kts 212°
2026-04-07 19:19 36.75146 -93.44256 40256 ft 455 kts 212°
2026-04-07 19:20 36.70418 -93.47186 40254 ft 455 kts 212°
2026-04-07 19:20 36.63826 -93.51265 40259 ft 454 kts 212°
2026-04-07 19:21 36.59097 -93.54185 40254 ft 455 kts 212°
2026-04-07 19:21 36.53411 -93.57692 40257 ft 454 kts 212°
2026-04-07 19:22 36.47766 -93.61167 40262 ft 455 kts 212°
2026-04-07 19:22 36.42083 -93.64660 40256 ft 454 kts 212°
2026-04-07 19:23 36.36436 -93.68126 40257 ft 454 kts 212°
2026-04-07 19:23 36.30747 -93.71611 40252 ft 454 kts 212°
2026-04-07 19:24 36.25073 -93.75082 40249 ft 454 kts 211°
2026-04-07 19:24 36.19415 -93.78537 40245 ft 455 kts 211°
2026-04-07 19:25 36.13754 -93.81988 40248 ft 455 kts 211°
2026-04-07 19:25 36.08061 -93.85454 40246 ft 455 kts 211°
2026-04-07 19:26 36.02403 -93.88893 40245 ft 455 kts 211°
2026-04-07 19:26 35.96736 -93.92331 40242 ft 455 kts 211°
2026-04-07 19:27 35.91021 -93.95793 40246 ft 455 kts 211°
2026-04-07 19:27 35.85362 -93.99216 40249 ft 455 kts 211°
2026-04-07 19:28 35.79632 -94.02676 40244 ft 455 kts 211°
2026-04-07 19:28 35.73964 -94.06093 40248 ft 455 kts 211°
2026-04-07 19:29 35.68281 -94.09514 40240 ft 456 kts 211°
2026-04-07 19:29 35.62573 -94.12944 40246 ft 456 kts 211°
2026-04-07 19:30 35.56896 -94.16350 40237 ft 456 kts 211°
2026-04-07 19:30 35.51172 -94.19780 40236 ft 456 kts 211°
2026-04-07 19:31 35.45476 -94.23187 40230 ft 457 kts 211°
2026-04-07 19:31 35.39761 -94.26663 40227 ft 455 kts 213°
2026-04-07 19:32 35.34357 -94.30596 40229 ft 453 kts 217°
2026-04-07 19:32 35.29014 -94.34694 40228 ft 453 kts 217°
2026-04-07 19:33 35.23677 -94.38778 40229 ft 453 kts 217°
2026-04-07 19:33 35.18308 -94.42883 40229 ft 453 kts 216°
2026-04-07 19:34 35.12979 -94.46952 40230 ft 454 kts 216°
2026-04-07 19:34 35.07608 -94.51046 40223 ft 454 kts 216°
2026-04-07 19:35 35.02260 -94.55117 40215 ft 454 kts 216°
2026-04-07 19:35 34.96885 -94.59203 40220 ft 454 kts 216°
2026-04-07 19:36 34.91534 -94.63263 40214 ft 454 kts 216°
2026-04-07 19:36 34.86157 -94.67337 40225 ft 454 kts 216°
2026-04-07 19:37 34.80771 -94.71412 40222 ft 454 kts 216°
2026-04-07 19:37 34.75420 -94.75453 40223 ft 455 kts 216°
2026-04-07 19:38 34.70038 -94.79512 40231 ft 455 kts 216°
2026-04-07 19:38 34.64684 -94.83544 40231 ft 455 kts 216°
2026-04-07 19:39 34.59290 -94.87599 40232 ft 455 kts 216°
2026-04-07 19:39 34.53894 -94.91650 40232 ft 455 kts 216°
2026-04-07 19:40 34.48529 -94.95671 40227 ft 455 kts 216°
2026-04-07 19:40 34.43130 -94.99711 40229 ft 455 kts 216°
2026-04-07 19:41 34.37766 -95.03719 40230 ft 455 kts 216°
2026-04-07 19:41 34.32366 -95.07748 40231 ft 455 kts 216°
2026-04-07 19:42 34.26960 -95.11775 40230 ft 455 kts 216°
2026-04-07 19:42 34.21594 -95.15767 40233 ft 455 kts 216°
2026-04-07 19:43 34.16213 -95.19764 40229 ft 455 kts 216°
2026-04-07 19:43 34.10811 -95.23770 40227 ft 455 kts 216°
2026-04-07 19:44 34.05402 -95.27774 40227 ft 455 kts 216°
2026-04-07 19:44 34.00013 -95.31759 40224 ft 455 kts 216°
2026-04-07 19:45 33.94617 -95.35742 40223 ft 455 kts 216°
2026-04-07 19:45 33.89190 -95.39742 40222 ft 455 kts 216°
2026-04-07 19:46 33.83799 -95.43710 40237 ft 455 kts 216°
2026-04-07 19:46 33.78376 -95.47696 40228 ft 455 kts 216°
2026-04-07 19:47 33.72980 -95.51654 40225 ft 456 kts 216°
2026-04-07 19:47 33.67553 -95.55631 40228 ft 456 kts 216°
2026-04-07 19:48 33.62148 -95.59585 40227 ft 456 kts 216°
2026-04-07 19:48 33.56751 -95.63528 40226 ft 456 kts 216°
2026-04-07 19:49 33.51316 -95.67492 40227 ft 456 kts 216°
2026-04-07 19:49 33.45907 -95.71431 40224 ft 456 kts 216°
2026-04-07 19:50 33.40466 -95.75389 40226 ft 456 kts 216°
2026-04-07 19:50 33.35064 -95.79312 40227 ft 456 kts 216°
2026-04-07 19:51 33.29623 -95.83257 40223 ft 456 kts 216°
2026-04-07 19:51 33.24221 -95.87170 40221 ft 456 kts 216°
2026-04-07 19:52 33.18760 -95.91118 40210 ft 456 kts 216°
2026-04-07 19:52 33.13354 -95.95021 40204 ft 456 kts 216°
2026-04-07 19:53 33.07905 -95.98949 40204 ft 456 kts 216°
2026-04-07 19:53 33.02506 -96.02835 40201 ft 456 kts 216°
2026-04-07 19:54 32.97053 -96.06754 40198 ft 456 kts 216°
2026-04-07 19:54 32.91619 -96.10654 40203 ft 455 kts 216°
2026-04-07 19:55 32.86211 -96.14529 40216 ft 455 kts 216°
2026-04-07 19:55 32.80757 -96.18432 40218 ft 455 kts 216°
2026-04-07 19:56 32.75345 -96.22299 40219 ft 455 kts 216°
2026-04-07 19:56 32.69904 -96.26183 40216 ft 455 kts 216°
2026-04-07 19:57 32.64482 -96.30045 40217 ft 455 kts 216°
2026-04-07 19:57 32.59065 -96.33900 40218 ft 455 kts 216°
2026-04-07 19:58 32.53660 -96.37741 40198 ft 454 kts 216°
2026-04-07 19:58 32.48225 -96.41597 40199 ft 454 kts 216°
2026-04-07 19:59 32.42821 -96.45422 40165 ft 447 kts 216°
2026-04-07 19:59 32.40182 -96.47290 39912 ft 445 kts 216°
2026-04-07 19:59 32.37524 -96.49169 39686 ft 442 kts 216°
2026-04-07 19:59 32.34888 -96.51033 39449 ft 439 kts 216°
2026-04-07 20:00 32.32298 -96.52862 39215 ft 436 kts 216°
2026-04-07 20:00 32.29694 -96.54699 38985 ft 434 kts 216°
2026-04-07 20:00 32.24505 -96.58361 38447 ft 433 kts 216°
2026-04-07 20:01 32.21938 -96.60172 38166 ft 434 kts 216°
2026-04-07 20:01 32.19335 -96.62005 37894 ft 435 kts 216°
2026-04-07 20:01 32.16733 -96.63836 37626 ft 435 kts 216°
2026-04-07 20:01 32.14122 -96.65672 37318 ft 436 kts 216°
2026-04-07 20:02 32.11516 -96.67504 36985 ft 437 kts 216°
2026-04-07 20:02 32.08925 -96.69323 36540 ft 438 kts 216°
2026-04-07 20:02 32.06309 -96.71160 36007 ft 438 kts 216°
2026-04-07 20:02 32.03681 -96.73004 35453 ft 438 kts 216°
2026-04-07 20:03 32.01051 -96.74846 34905 ft 438 kts 216°
2026-04-07 20:03 31.98423 -96.76686 34348 ft 439 kts 216°
2026-04-07 20:03 31.95789 -96.78530 33725 ft 440 kts 215°
2026-04-07 20:03 31.93184 -96.80351 33136 ft 439 kts 215°
2026-04-07 20:04 31.90560 -96.82185 32572 ft 439 kts 215°
2026-04-07 20:04 31.87925 -96.84026 31989 ft 438 kts 215°
2026-04-07 20:04 31.85299 -96.85859 31428 ft 438 kts 214°
2026-04-07 20:04 31.82669 -96.87695 30833 ft 438 kts 214°
2026-04-07 20:05 31.80042 -96.89528 30206 ft 440 kts 214°
2026-04-07 20:05 31.77430 -96.91347 29495 ft 441 kts 214°
2026-04-07 20:05 31.74787 -96.93184 28826 ft 441 kts 214°
2026-04-07 20:05 31.72128 -96.95032 28149 ft 442 kts 214°
2026-04-07 20:06 31.69469 -96.96878 27562 ft 442 kts 214°
2026-04-07 20:06 31.66835 -96.98707 27132 ft 443 kts 213°
2026-04-07 20:06 31.64176 -97.00551 26635 ft 440 kts 214°
2026-04-07 20:06 31.61576 -97.02352 26198 ft 435 kts 214°
2026-04-07 20:07 31.58967 -97.04159 25764 ft 431 kts 214°
2026-04-07 20:07 31.56384 -97.05929 25342 ft 428 kts 212°
2026-04-07 20:07 31.53736 -97.07536 24918 ft 425 kts 209°
2026-04-07 20:07 31.51065 -97.08917 24505 ft 424 kts 206°
2026-04-07 20:08 31.48312 -97.10157 24109 ft 421 kts 204°
2026-04-07 20:08 31.45561 -97.11340 23756 ft 416 kts 204°
2026-04-07 20:08 31.42840 -97.12504 23369 ft 419 kts 204°
2026-04-07 20:08 31.40098 -97.13685 23011 ft 427 kts 204°
2026-04-07 20:09 31.37298 -97.14892 22646 ft 426 kts 204°
2026-04-07 20:09 31.34517 -97.16093 22294 ft 424 kts 204°
2026-04-07 20:09 31.31779 -97.17275 21949 ft 422 kts 204°
2026-04-07 20:09 31.29949 -97.18065 21704 ft 421 kts 204°
2026-04-07 20:10 31.27203 -97.19252 21296 ft 418 kts 204°
2026-04-07 20:10 31.24473 -97.20433 20865 ft 415 kts 204°
2026-04-07 20:10 31.21772 -97.21600 20420 ft 411 kts 204°
2026-04-07 20:10 31.19116 -97.22746 19985 ft 408 kts 203°
2026-04-07 20:11 31.16463 -97.23891 19548 ft 404 kts 203°
2026-04-07 20:11 31.13832 -97.25027 19109 ft 400 kts 203°
2026-04-07 20:11 31.11227 -97.26149 18673 ft 397 kts 203°
2026-04-07 20:11 31.08670 -97.27251 18209 ft 394 kts 203°
2026-04-07 20:12 31.06106 -97.28355 17725 ft 390 kts 202°
2026-04-07 20:12 31.03555 -97.29453 17258 ft 387 kts 202°
2026-04-07 20:12 31.01038 -97.30536 16811 ft 383 kts 202°
2026-04-07 20:12 30.98573 -97.31596 16372 ft 380 kts 202°
2026-04-07 20:13 30.96089 -97.32663 15928 ft 377 kts 202°
2026-04-07 20:13 30.93631 -97.33719 15500 ft 374 kts 202°
2026-04-07 20:13 30.91195 -97.34765 15079 ft 371 kts 202°
2026-04-07 20:13 30.88806 -97.35790 14643 ft 369 kts 201°
2026-04-07 20:14 30.86384 -97.36830 14132 ft 369 kts 201°
2026-04-07 20:14 30.83993 -97.37854 13637 ft 368 kts 201°
2026-04-07 20:14 30.81602 -97.38876 13161 ft 365 kts 201°
2026-04-07 20:14 30.79229 -97.39890 12750 ft 361 kts 201°
2026-04-07 20:15 30.76890 -97.40890 12374 ft 353 kts 201°
2026-04-07 20:15 30.74596 -97.41870 11596 ft 345 kts 200°
2026-04-07 20:15 30.72426 -97.42798 11246 ft 325 kts 200°
2026-04-07 20:15 30.70363 -97.43678 11099 ft 305 kts 200°
2026-04-07 20:16 30.68402 -97.44515 10882 ft 296 kts 200°
2026-04-07 20:16 30.66521 -97.45317 10748 ft 285 kts 200°
2026-04-07 20:16 30.64658 -97.46112 10655 ft 284 kts 200°
2026-04-07 20:16 30.62799 -97.46904 10532 ft 284 kts 200°
2026-04-07 20:17 30.60943 -97.47695 10358 ft 283 kts 200°
2026-04-07 20:17 30.59121 -97.48472 10195 ft 282 kts 200°
2026-04-07 20:17 30.57274 -97.49259 9999 ft 282 kts 200°
2026-04-07 20:17 30.55430 -97.50044 9820 ft 281 kts 200°
2026-04-07 20:18 30.53593 -97.50827 9622 ft 280 kts 199°
2026-04-07 20:18 30.51759 -97.51607 9450 ft 280 kts 199°
2026-04-07 20:18 30.49954 -97.52375 9289 ft 279 kts 199°
2026-04-07 20:18 30.48460 -97.53010 9165 ft 279 kts 199°
2026-04-07 20:19 30.46529 -97.53831 9016 ft 278 kts 199°
2026-04-07 20:19 30.44712 -97.54602 8850 ft 278 kts 199°
2026-04-07 20:19 30.42892 -97.55375 8702 ft 277 kts 199°
2026-04-07 20:19 30.41100 -97.56135 8538 ft 277 kts 199°
2026-04-07 20:20 30.39247 -97.56721 8378 ft 276 kts 188°
2026-04-07 20:20 30.37333 -97.56906 8230 ft 274 kts 180°
2026-04-07 20:20 30.35420 -97.56917 8079 ft 274 kts 179°
2026-04-07 20:20 30.33531 -97.56906 7933 ft 274 kts 179°
2026-04-07 20:21 30.31625 -97.56899 7792 ft 274 kts 179°
2026-04-07 20:21 30.29712 -97.56901 7611 ft 273 kts 178°
2026-04-07 20:21 30.27812 -97.56899 7487 ft 272 kts 178°
2026-04-07 20:21 30.25936 -97.56860 7359 ft 271 kts 177°
2026-04-07 20:22 30.24049 -97.56804 7189 ft 271 kts 177°
2026-04-07 20:22 30.22154 -97.56748 7029 ft 271 kts 177°
2026-04-07 20:22 30.20265 -97.56696 6898 ft 270 kts 177°
2026-04-07 20:22 30.18413 -97.56641 6756 ft 270 kts 176°
2026-04-07 20:23 30.16528 -97.56566 6614 ft 269 kts 176°
2026-04-07 20:23 30.14658 -97.56488 6488 ft 269 kts 176°
2026-04-07 20:23 30.12785 -97.56411 6312 ft 268 kts 176°
2026-04-07 20:23 30.10939 -97.56335 6161 ft 268 kts 176°
2026-04-07 20:24 30.09085 -97.56259 6033 ft 268 kts 176°
2026-04-07 20:24 30.07214 -97.56182 5841 ft 268 kts 177°
2026-04-07 20:24 30.05357 -97.56422 5657 ft 271 kts 199°
2026-04-07 20:24 30.03782 -97.57638 5525 ft 276 kts 227°
2026-04-07 20:25 30.02875 -97.59556 5358 ft 278 kts 256°
2026-04-07 20:25 30.02763 -97.61786 5231 ft 279 kts 274°
2026-04-07 20:25 30.02973 -97.64003 5076 ft 272 kts 282°
2026-04-07 20:25 30.03741 -97.65949 4826 ft 263 kts 313°
2026-04-07 20:26 30.05144 -97.67160 4601 ft 250 kts 341°
2026-04-07 20:26 30.06790 -97.67613 4184 ft 239 kts 358°
2026-04-07 20:26 30.08433 -97.67666 3528 ft 234 kts
2026-04-07 20:26 30.10036 -97.67647 3077 ft 223 kts
2026-04-07 20:27 30.11511 -97.67674 2971 ft 199 kts
2026-04-07 20:27 30.12806 -97.67714 2946 ft 177 kts
2026-04-07 20:27 30.13987 -97.67967 2921 ft 175 kts 330°
2026-04-07 20:27 30.14766 -97.69065 2983 ft 187 kts 294°
2026-04-07 20:28 30.15023 -97.70654 3023 ft 216 kts 274°
2026-04-07 20:28 30.15027 -97.72365 2988 ft 210 kts 264°
2026-04-07 20:28 30.14467 -97.73869 2926 ft 205 kts 225°
2026-04-07 20:28 30.13249 -97.74654 2941 ft 201 kts 192°
2026-04-07 20:29 30.11887 -97.74916 2968 ft 199 kts 184°
2026-04-07 20:29 30.10505 -97.75093 2963 ft 199 kts 183°
2026-04-07 20:29 30.09120 -97.75259 2966 ft 199 kts 183°
2026-04-07 20:29 30.07756 -97.75421 2964 ft 199 kts 183°
2026-04-07 20:30 30.06374 -97.75582 2955 ft 200 kts 183°
2026-04-07 20:30 30.04984 -97.75737 2952 ft 200 kts 184°
2026-04-07 20:30 30.03595 -97.75890 2951 ft 200 kts 183°
2026-04-07 20:30 30.02216 -97.75871 2935 ft 196 kts 160°
2026-04-07 20:31 30.01146 -97.74995 2940 ft 191 kts 122°
2026-04-07 20:31 30.00814 -97.73546 2963 ft 191 kts 84°
2026-04-07 20:31 30.01360 -97.72159 2963 ft 192 kts 53°
2026-04-07 20:31 30.02191 -97.70950 2963 ft 192 kts 53°
2026-04-07 20:32 30.02991 -97.69733 2992 ft 192 kts 54°
2026-04-07 20:32 30.03800 -97.68501 2957 ft 191 kts 52°
2026-04-07 20:32 30.04902 -97.67651 2964 ft 197 kts 18°
2026-04-07 20:32 30.06248 -97.67465 2809 ft 197 kts
2026-04-07 20:33 30.07614 -97.67524 2536 ft 194 kts 359°
2026-04-07 20:33 30.08957 -97.67606 2284 ft 191 kts
2026-04-07 20:33 30.10274 -97.67654 2030 ft 187 kts
2026-04-07 20:33 30.11532 -97.67686 1782 ft 177 kts
2026-04-07 20:34 30.12722 -97.67713 1531 ft 165 kts
2026-04-07 20:34 30.13846 -97.67730 1291 ft 160 kts
2026-04-07 20:34 30.14958 -97.67759 1145 ft 159 kts
2026-04-07 20:34 30.16064 -97.67796 984 ft 159 kts
2026-04-07 20:35 30.17154 -97.67827 816 ft 159 kts
2026-04-07 20:35 30.18254 -97.67857 614 ft 157 kts
2026-04-07 20:35 30.19325 -97.67886 543 ft 145 kts
2026-04-07 20:35 30.20165 -97.67904 536 ft 89 kts 359°
2026-04-07 20:36 30.20585 -97.67916 537 ft 47 kts 359°
2026-04-07 20:36 30.20900 -97.67925 536 ft 39 kts 359°
2026-04-07 20:36 30.21137 -97.67931 536 ft 29 kts 359°
2026-04-07 20:36 30.21281 -97.67920 534 ft 19 kts 22°
2026-04-07 20:37 30.21354 -97.67797 535 ft 21 kts 92°
2026-04-07 20:37 30.21353 -97.67638 535 ft 15 kts 87°
2026-04-07 20:37 30.21296 -97.67552 536 ft 16 kts 161°
2026-04-07 20:37 30.21178 -97.67513 536 ft 19 kts 164°
2026-04-07 20:38 30.21038 -97.67471 536 ft 22 kts 165°
2026-04-07 20:38 30.20883 -97.67423 536 ft 24 kts 163°
2026-04-07 20:38 30.20714 -97.67370 536 ft 26 kts 165°
2026-04-07 20:38 30.20530 -97.67350 536 ft 26 kts 177°
2026-04-07 20:39 30.20438 -97.67347 536 ft 6 kts 179°
2026-04-07 20:39 30.20386 -97.67346 536 ft 9 kts 179°
2026-04-07 20:39 30.20310 -97.67344 536 ft 12 kts 178°
2026-04-07 20:39 30.20214 -97.67342 536 ft 15 kts 179°
2026-04-07 20:40 30.20132 -97.67340 536 ft 3 kts 179°
2026-04-07 20:40 30.20104 -97.67333 536 ft 5 kts 151°
2026-04-07 20:40 30.20088 -97.67290 536 ft 8 kts 90°
2026-04-07 20:40 30.20088 -97.67214 536 ft 11 kts 90°
2026-04-07 20:41 30.20090 -97.67117 536 ft 13 kts 88°
2026-04-07 20:41 30.20093 -97.66997 536 ft 16 kts 88°
2026-04-07 20:41 30.20082 -97.66855 536 ft 19 kts 106°
2026-04-07 20:41 30.20060 -97.66711 536 ft 18 kts 91°
2026-04-07 20:42 30.20077 -97.66561 536 ft 20 kts 74°
2026-04-07 20:42 30.20092 -97.66401 536 ft 17 kts 89°
2026-04-07 20:42 30.20094 -97.66264 536 ft 18 kts 89°
2026-04-07 20:42 30.20098 -97.66169 536 ft 5 kts 75°
2026-04-07 20:43 30.20128 -97.66141 536 ft 7 kts
2026-04-07 20:43 30.20202 -97.66138 536 ft 12 kts
2026-04-07 20:43 30.20260 -97.66138 536 ft 8 kts 359°
2026-04-07 20:43 30.20288 -97.66139 536 ft 4 kts 359°
2026-04-07 20:44 30.20304 -97.66152 536 ft 3 kts 291°
2026-04-07 20:44 30.20301 -97.66190 536 ft 5 kts 253°
2026-04-07 20:44 30.20291 -97.66221 536 ft 3 kts 249°
2026-04-07 20:44 30.20290 -97.66226 536 ft 1 kts 249°
2026-04-07 20:45 30.20287 -97.66234 536 ft 0 kts 249°